Observation data for Coyanosa on 09/11/2017      Previous  Date       Current Mesonet Observations  Soil Data  Daily Summary Page  Observations in Plain Language
KCO1 110500Z 09007KT 22/07 A3018 RMK A01 T02170074  RH  040%=      5-min Rain = 0
KCO1 110501Z 10007KT 22/07 A3018 RMK A01 T02170074  RH  040%=      5-min Rain = 0
KCO1 110502Z 10008KT 22/07 A3018 RMK A01 T02170074  RH  040%=      5-min Rain = 0
KCO1 110503Z 10007KT 22/07 A3018 RMK A01 T02170074  RH  040%=      5-min Rain = 0
KCO1 110504Z 10007KT 22/07 A3018 RMK A01 T02170074  RH  040%=      5-min Rain = 0
KCO1 110505Z 10007KT 22/07 A3018 RMK A01 T02170074  RH  040%=      5-min Rain = 0
KCO1 110506Z 10007KT 22/07 A3018 RMK A01 T02160074  RH  040%=      5-min Rain = 0
KCO1 110507Z 10007KT 22/07 A3018 RMK A01 T02150074  RH  040%=      5-min Rain = 0
KCO1 110508Z 10007KT 22/07 A3018 RMK A01 T02150074  RH  040%=      5-min Rain = 0
KCO1 110509Z 10006KT 22/07 A3018 RMK A01 T02150074  RH  040%=      5-min Rain = 0
KCO1 110510Z 10007KT 22/07 A3018 RMK A01 T02150074  RH  040%=      5-min Rain = 0
KCO1 110511Z 10007KT 21/07 A3018 RMK A01 T02140074  RH  040%=      5-min Rain = 0
KCO1 110512Z 10009KT 22/08 A3018 RMK A01 T02150075  RH  040%=      5-min Rain = 0
KCO1 110513Z 10008KT 22/08 A3018 RMK A01 T02150075  RH  040%=      5-min Rain = 0
KCO1 110514Z 10008KT 22/08 A3018 RMK A01 T02160075  RH  040%=      5-min Rain = 0
KCO1 110515Z 10008KT 22/08 A3018 RMK A01 T02160075  RH  040%=      5-min Rain = 0
KCO1 110516Z 10008KT 22/08 A3018 RMK A01 T02160075  RH  040%=      5-min Rain = 0
KCO1 110517Z 10008KT 22/08 A3018 RMK A01 T02160075  RH  040%=      5-min Rain = 0
KCO1 110518Z 10008KT 22/08 A3018 RMK A01 T02160075  RH  040%=      5-min Rain = 0
KCO1 110519Z 10007KT 22/08 A3018 RMK A01 T02160076  RH  040%=      5-min Rain = 0
KCO1 110520Z 10008KT 22/08 A3018 RMK A01 T02160076  RH  040%=      5-min Rain = 0
KCO1 110521Z 10007KT 22/08 A3018 RMK A01 T02160076  RH  040%=      5-min Rain = 0
KCO1 110522Z 10007KT 22/08 A3018 RMK A01 T02150075  RH  041%=      5-min Rain = 0
KCO1 110523Z 10007KT 22/08 A3018 RMK A01 T02150076  RH  041%=      5-min Rain = 0
KCO1 110524Z 10007KT 21/08 A3018 RMK A01 T02140076  RH  041%=      5-min Rain = 0
KCO1 110525Z 10007KT 21/08 A3018 RMK A01 T02140076  RH  041%=      5-min Rain = 0
KCO1 110526Z 10007KT 21/08 A3018 RMK A01 T02140076  RH  041%=      5-min Rain = 0
KCO1 110527Z 10007KT 21/08 A3018 RMK A01 T02130075  RH  041%=      5-min Rain = 0
KCO1 110528Z 10006KT 21/08 A3018 RMK A01 T02130076  RH  041%=      5-min Rain = 0
KCO1 110529Z 10006KT 21/08 A3018 RMK A01 T02120076  RH  041%=      5-min Rain = 0
KCO1 110530Z 10006KT 21/08 A3018 RMK A01 T02120075  RH  041%=      5-min Rain = 0
KCO1 110531Z 10007KT 21/08 A3018 RMK A01 T02110075  RH  041%=      5-min Rain = 0
KCO1 110532Z 10007KT 21/08 A3018 RMK A01 T02110075  RH  041%=      5-min Rain = 0
KCO1 110533Z 10006KT 21/08 A3018 RMK A01 T02110075  RH  041%=      5-min Rain = 0
KCO1 110534Z 10006KT 21/08 A3018 RMK A01 T02110075  RH  041%=      5-min Rain = 0
KCO1 110535Z 10006KT 21/08 A3018 RMK A01 T02110075  RH  041%=      5-min Rain = 0
KCO1 110536Z 10006KT 21/07 A3018 RMK A01 T02100074  RH  041%=      5-min Rain = 0
KCO1 110537Z 10006KT 21/07 A3018 RMK A01 T02100074  RH  042%=      5-min Rain = 0
KCO1 110538Z 10006KT 21/07 A3018 RMK A01 T02090074  RH  042%=      5-min Rain = 0
KCO1 110539Z 11006KT 21/07 A3018 RMK A01 T02100074  RH  042%=      5-min Rain = 0
KCO1 110540Z 11006KT 21/07 A3018 RMK A01 T02090074  RH  042%=      5-min Rain = 0
KCO1 110541Z 11007KT 21/07 A3018 RMK A01 T02090074  RH  042%=      5-min Rain = 0
KCO1 110542Z 11006KT 21/07 A3018 RMK A01 T02090074  RH  042%=      5-min Rain = 0
KCO1 110543Z 11007KT 21/07 A3018 RMK A01 T02090074  RH  042%=      5-min Rain = 0
KCO1 110544Z 11006KT 21/07 A3018 RMK A01 T02080074  RH  042%=      5-min Rain = 0
KCO1 110545Z 11006KT 21/07 A3018 RMK A01 T02090074  RH  042%=      5-min Rain = 0
KCO1 110546Z 11006KT 21/07 A3018 RMK A01 T02080074  RH  042%=      5-min Rain = 0
KCO1 110547Z 11006KT 21/07 A3018 RMK A01 T02080074  RH  042%=      5-min Rain = 0
KCO1 110548Z 11007KT 21/07 A3018 RMK A01 T02080074  RH  042%=      5-min Rain = 0
KCO1 110549Z 11007KT 21/07 A3018 RMK A01 T02080074  RH  042%=      5-min Rain = 0
KCO1 110550Z 11007KT 21/07 A3018 RMK A01 T02070074  RH  042%=      5-min Rain = 0
KCO1 110551Z 11007KT 21/07 A3018 RMK A01 T02070074  RH  042%=      5-min Rain = 0
KCO1 110552Z 11007KT 21/07 A3018 RMK A01 T02070074  RH  042%=      5-min Rain = 0
KCO1 110553Z 11007KT 21/07 A3018 RMK A01 T02070074  RH  042%=      5-min Rain = 0
KCO1 110554Z 11007KT 21/07 A3018 RMK A01 T02070074  RH  042%=      5-min Rain = 0
KCO1 110555Z 11007KT 21/08 A3018 RMK A01 T02070075  RH  042%=      5-min Rain = 0
KCO1 110556Z 11007KT 21/08 A3018 RMK A01 T02070075  RH  042%=      5-min Rain = 0
KCO1 110557Z 11006KT 21/08 A3018 RMK A01 T02070075  RH  042%=      5-min Rain = 0
KCO1 110558Z 11008KT 21/08 A3018 RMK A01 T02070075  RH  043%=      5-min Rain = 0
KCO1 110559Z 11007KT 21/08 A3018 RMK A01 T02070075  RH  043%=      5-min Rain = 0
KCO1 110600Z 11007KT 21/08 A3018 RMK A01 T02070075  RH  043%=      5-min Rain = 0
KCO1 110601Z 11007KT 21/08 A3018 RMK A01 T02070076  RH  043%=      5-min Rain = 0
KCO1 110602Z 11007KT 21/08 A3018 RMK A01 T02070075  RH  043%=      5-min Rain = 0
KCO1 110603Z 11007KT 21/08 A3018 RMK A01 T02070075  RH  043%=      5-min Rain = 0
KCO1 110604Z 11007KT 21/08 A3018 RMK A01 T02070076  RH  043%=      5-min Rain = 0
KCO1 110605Z 11007KT 21/08 A3018 RMK A01 T02070076  RH  043%=      5-min Rain = 0
KCO1 110606Z 11007KT 21/08 A3018 RMK A01 T02070076  RH  043%=      5-min Rain = 0
KCO1 110607Z 11007KT 21/08 A3018 RMK A01 T02080076  RH  043%=      5-min Rain = 0
KCO1 110608Z 11007KT 21/08 A3018 RMK A01 T02080077  RH  043%=      5-min Rain = 0
KCO1 110609Z 11008KT 21/08 A3018 RMK A01 T02090077  RH  043%=      5-min Rain = 0
KCO1 110610Z 11007KT 21/08 A3018 RMK A01 T02090077  RH  042%=      5-min Rain = 0
KCO1 110611Z 11006KT 21/08 A3018 RMK A01 T02100077  RH  042%=      5-min Rain = 0
KCO1 110612Z 11007KT 21/08 A3018 RMK A01 T02090077  RH  042%=      5-min Rain = 0
KCO1 110613Z 11008KT 21/08 A3018 RMK A01 T02090077  RH  042%=      5-min Rain = 0
KCO1 110614Z 11007KT 21/08 A3018 RMK A01 T02090078  RH  043%=      5-min Rain = 0
KCO1 110615Z 11007KT 21/08 A3018 RMK A01 T02090077  RH  043%=      5-min Rain = 0
KCO1 110616Z 11008KT 21/08 A3018 RMK A01 T02090077  RH  043%=      5-min Rain = 0
KCO1 110617Z 11007KT 21/08 A3018 RMK A01 T02090077  RH  043%=      5-min Rain = 0
KCO1 110618Z 11007KT 21/08 A3018 RMK A01 T02090078  RH  043%=      5-min Rain = 0
KCO1 110619Z 11007KT 21/08 A3018 RMK A01 T02080078  RH  043%=      5-min Rain = 0
KCO1 110620Z 11008KT 21/08 A3018 RMK A01 T02080077  RH  043%=      5-min Rain = 0
KCO1 110621Z 11007KT 21/08 A3018 RMK A01 T02080078  RH  043%=      5-min Rain = 0
KCO1 110622Z 11008KT 21/08 A3018 RMK A01 T02080078  RH  043%=      5-min Rain = 0
KCO1 110623Z 11007KT 21/08 A3018 RMK A01 T02080077  RH  043%=      5-min Rain = 0
KCO1 110624Z 11007KT 21/08 A3018 RMK A01 T02080077  RH  043%=      5-min Rain = 0
KCO1 110625Z 11007KT 21/08 A3018 RMK A01 T02070077  RH  043%=      5-min Rain = 0
KCO1 110626Z 11006KT 21/08 A3018 RMK A01 T02070077  RH  043%=      5-min Rain = 0
KCO1 110627Z 11006KT 21/08 A3018 RMK A01 T02070077  RH  043%=      5-min Rain = 0
KCO1 110628Z 11007KT 21/08 A3018 RMK A01 T02070077  RH  043%=      5-min Rain = 0
KCO1 110629Z 12006KT 21/08 A3018 RMK A01 T02060077  RH  043%=      5-min Rain = 0
KCO1 110630Z 11007KT 21/08 A3018 RMK A01 T02060077  RH  043%=      5-min Rain = 0
KCO1 110631Z 11007KT 21/08 A3018 RMK A01 T02050077  RH  044%=      5-min Rain = 0
KCO1 110632Z 12007KT 21/08 A3018 RMK A01 T02050077  RH  044%=      5-min Rain = 0
KCO1 110633Z 11008KT 21/08 A3018 RMK A01 T02050077  RH  044%=      5-min Rain = 0
KCO1 110634Z 12007KT 21/08 A3018 RMK A01 T02050077  RH  044%=      5-min Rain = 0
KCO1 110635Z 11007KT 20/08 A3018 RMK A01 T02040077  RH  044%=      5-min Rain = 0
KCO1 110636Z 11006KT 20/08 A3018 RMK A01 T02040077  RH  044%=      5-min Rain = 0
KCO1 110637Z 11006KT 20/08 A3018 RMK A01 T02030077  RH  044%=      5-min Rain = 0
KCO1 110638Z 11007KT 20/08 A3018 RMK A01 T02030077  RH  044%=      5-min Rain = 0
KCO1 110639Z 11007KT 20/08 A3018 RMK A01 T02020077  RH  044%=      5-min Rain = 0
KCO1 110640Z 11007KT 20/08 A3018 RMK A01 T02020077  RH  044%=      5-min Rain = 0
KCO1 110641Z 11006KT 20/08 A3018 RMK A01 T02020077  RH  045%=      5-min Rain = 0
KCO1 110642Z 11007KT 20/08 A3018 RMK A01 T02010077  RH  045%=      5-min Rain = 0
KCO1 110643Z 11006KT 20/08 A3018 RMK A01 T02010077  RH  045%=      5-min Rain = 0
KCO1 110644Z 11006KT 20/08 A3018 RMK A01 T02000077  RH  045%=      5-min Rain = 0
KCO1 110645Z 11007KT 20/08 A3018 RMK A01 T02000077  RH  045%=      5-min Rain = 0
KCO1 110646Z 11006KT 20/08 A3018 RMK A01 T02000077  RH  045%=      5-min Rain = 0
KCO1 110647Z 11007KT 20/08 A3018 RMK A01 T02000077  RH  045%=      5-min Rain = 0
KCO1 110648Z 11006KT 20/08 A3018 RMK A01 T01990077  RH  045%=      5-min Rain = 0
KCO1 110649Z 11006KT 20/08 A3018 RMK A01 T01990077  RH  045%=      5-min Rain = 0
KCO1 110650Z 11007KT 20/08 A3018 RMK A01 T01990077  RH  045%=      5-min Rain = 0
KCO1 110651Z 12007KT 20/08 A3018 RMK A01 T01990077  RH  045%=      5-min Rain = 0
KCO1 110652Z 12006KT 20/08 A3018 RMK A01 T01990077  RH  045%=      5-min Rain = 0
KCO1 110653Z 12006KT 20/08 A3018 RMK A01 T01990077  RH  045%=      5-min Rain = 0
KCO1 110654Z 12006KT 20/08 A3018 RMK A01 T01980077  RH  046%=      5-min Rain = 0
KCO1 110655Z 12006KT 20/08 A3018 RMK A01 T01980077  RH  046%=      5-min Rain = 0
KCO1 110656Z 12006KT 20/08 A3018 RMK A01 T01970078  RH  046%=      5-min Rain = 0
KCO1 110657Z 11006KT 20/08 A3018 RMK A01 T01970078  RH  046%=      5-min Rain = 0
KCO1 110658Z 11006KT 20/08 A3018 RMK A01 T01970078  RH  046%=      5-min Rain = 0
KCO1 110659Z 11006KT 20/08 A3018 RMK A01 T01970078  RH  046%=      5-min Rain = 0
KCO1 110700Z 11006KT 20/08 A3018 RMK A01 T01960078  RH  046%=      5-min Rain = 0
KCO1 110701Z 11007KT 20/08 A3018 RMK A01 T01960079  RH  046%=      5-min Rain = 0
KCO1 110702Z 11006KT 20/08 A3018 RMK A01 T01960079  RH  047%=      5-min Rain = 0
KCO1 110703Z 11006KT 20/08 A3018 RMK A01 T01960079  RH  047%=      5-min Rain = 0
KCO1 110704Z 11006KT 20/08 A3018 RMK A01 T01960079  RH  047%=      5-min Rain = 0
KCO1 110705Z 12006KT 20/08 A3018 RMK A01 T01960079  RH  047%=      5-min Rain = 0
KCO1 110706Z 12006KT 20/08 A3018 RMK A01 T01960079  RH  047%=      5-min Rain = 0
KCO1 110707Z 12006KT 20/08 A3018 RMK A01 T01960079  RH  047%=      5-min Rain = 0
KCO1 110708Z 12006KT 20/08 A3018 RMK A01 T01950079  RH  047%=      5-min Rain = 0
KCO1 110709Z 12006KT 20/08 A3018 RMK A01 T01950079  RH  047%=      5-min Rain = 0
KCO1 110710Z 12006KT 20/08 A3018 RMK A01 T01950079  RH  047%=      5-min Rain = 0
KCO1 110711Z 12006KT 20/08 A3018 RMK A01 T01950079  RH  047%=      5-min Rain = 0
KCO1 110712Z 12006KT 19/08 A3018 RMK A01 T01940079  RH  047%=      5-min Rain = 0
KCO1 110713Z 12006KT 19/08 A3018 RMK A01 T01940079  RH  047%=      5-min Rain = 0
KCO1 110714Z 12006KT 19/08 A3018 RMK A01 T01930079  RH  048%=      5-min Rain = 0
KCO1 110715Z 12006KT 19/08 A3018 RMK A01 T01930079  RH  048%=      5-min Rain = 0
KCO1 110716Z 11006KT 19/08 A3018 RMK A01 T01930079  RH  048%=      5-min Rain = 0
KCO1 110717Z 11006KT 19/08 A3018 RMK A01 T01920079  RH  048%=      5-min Rain = 0
KCO1 110718Z 11005KT 19/08 A3018 RMK A01 T01920079  RH  048%=      5-min Rain = 0
KCO1 110719Z 12005KT 19/08 A3018 RMK A01 T01920079  RH  048%=      5-min Rain = 0
KCO1 110720Z 12005KT 19/08 A3018 RMK A01 T01910079  RH  048%=      5-min Rain = 0
KCO1 110721Z 12005KT 19/08 A3018 RMK A01 T01910079  RH  048%=      5-min Rain = 0
KCO1 110722Z 12005KT 19/08 A3018 RMK A01 T01900079  RH  048%=      5-min Rain = 0
KCO1 110723Z 12006KT 19/08 A3018 RMK A01 T01900079  RH  048%=      5-min Rain = 0
KCO1 110724Z 12006KT 19/08 A3018 RMK A01 T01890078  RH  048%=      5-min Rain = 0
KCO1 110725Z 12005KT 19/08 A3018 RMK A01 T01890079  RH  049%=      5-min Rain = 0
KCO1 110726Z 13005KT 19/08 A3018 RMK A01 T01890079  RH  049%=      5-min Rain = 0
KCO1 110727Z 13005KT 19/08 A3018 RMK A01 T01880079  RH  049%=      5-min Rain = 0
KCO1 110728Z 13004KT 19/08 A3018 RMK A01 T01880079  RH  049%=      5-min Rain = 0
KCO1 110729Z 12005KT 19/08 A3018 RMK A01 T01880079  RH  049%=      5-min Rain = 0
KCO1 110730Z 12005KT 19/08 A3018 RMK A01 T01870079  RH  049%=      5-min Rain = 0
KCO1 110731Z 12005KT 19/08 A3018 RMK A01 T01870079  RH  049%=      5-min Rain = 0
KCO1 110732Z 12005KT 19/08 A3018 RMK A01 T01870079  RH  049%=      5-min Rain = 0
KCO1 110733Z 13005KT 19/08 A3018 RMK A01 T01870079  RH  050%=      5-min Rain = 0
KCO1 110734Z 13005KT 19/08 A3018 RMK A01 T01860079  RH  050%=      5-min Rain = 0
KCO1 110735Z 12005KT 19/08 A3018 RMK A01 T01860079  RH  050%=      5-min Rain = 0
KCO1 110736Z 13005KT 19/08 A3018 RMK A01 T01850078  RH  050%=      5-min Rain = 0
KCO1 110737Z 13005KT 19/08 A3018 RMK A01 T01850078  RH  050%=      5-min Rain = 0
KCO1 110738Z 13005KT 19/08 A3018 RMK A01 T01850078  RH  050%=      5-min Rain = 0
KCO1 110739Z 13005KT 18/08 A3018 RMK A01 T01840078  RH  050%=      5-min Rain = 0
KCO1 110740Z 13005KT 18/08 A3018 RMK A01 T01840078  RH  050%=      5-min Rain = 0
KCO1 110741Z 13005KT 18/08 A3018 RMK A01 T01840078  RH  050%=      5-min Rain = 0
KCO1 110742Z 13005KT 18/08 A3018 RMK A01 T01830078  RH  050%=      5-min Rain = 0
KCO1 110743Z 13005KT 18/08 A3018 RMK A01 T01830078  RH  050%=      5-min Rain = 0
KCO1 110744Z 13005KT 18/08 A3018 RMK A01 T01830078  RH  050%=      5-min Rain = 0
KCO1 110745Z 12005KT 18/08 A3018 RMK A01 T01830078  RH  050%=      5-min Rain = 0
KCO1 110746Z 12005KT 18/08 A3018 RMK A01 T01820078  RH  051%=      5-min Rain = 0
KCO1 110747Z 12005KT 18/08 A3018 RMK A01 T01820078  RH  051%=      5-min Rain = 0
KCO1 110748Z 12005KT 18/08 A3018 RMK A01 T01820078  RH  051%=      5-min Rain = 0
KCO1 110749Z 12005KT 18/08 A3018 RMK A01 T01810078  RH  051%=      5-min Rain = 0
KCO1 110750Z 12005KT 18/08 A3018 RMK A01 T01810078  RH  051%=      5-min Rain = 0
KCO1 110751Z 12005KT 18/08 A3018 RMK A01 T01810078  RH  051%=      5-min Rain = 0
KCO1 110752Z 12005KT 18/08 A3018 RMK A01 T01800078  RH  051%=      5-min Rain = 0
KCO1 110753Z 12005KT 18/08 A3018 RMK A01 T01800078  RH  051%=      5-min Rain = 0
KCO1 110754Z 12005KT 18/08 A3018 RMK A01 T01800078  RH  051%=      5-min Rain = 0
KCO1 110755Z 12005KT 18/08 A3018 RMK A01 T01790078  RH  051%=      5-min Rain = 0
KCO1 110756Z 12005KT 18/08 A3017 RMK A01 T01790077  RH  051%=      5-min Rain = 0
KCO1 110757Z 11005KT 18/08 A3017 RMK A01 T01790078  RH  052%=      5-min Rain = 0
KCO1 110758Z 12005KT 18/08 A3017 RMK A01 T01780078  RH  052%=      5-min Rain = 0
KCO1 110759Z 12005KT 18/08 A3017 RMK A01 T01780077  RH  052%=      5-min Rain = 0
KCO1 110800Z 12005KT 18/08 A3017 RMK A01 T01770077  RH  052%=      5-min Rain = 0
KCO1 110801Z 12004KT 18/08 A3017 RMK A01 T01770077  RH  052%=      5-min Rain = 0
KCO1 110802Z 12005KT 18/08 A3017 RMK A01 T01760077  RH  052%=      5-min Rain = 0
KCO1 110803Z 12005KT 18/08 A3017 RMK A01 T01760077  RH  052%=      5-min Rain = 0
KCO1 110804Z 12005KT 18/08 A3017 RMK A01 T01750077  RH  052%=      5-min Rain = 0
KCO1 110805Z 12005KT 18/08 A3017 RMK A01 T01750077  RH  052%=      5-min Rain = 0
KCO1 110806Z 12005KT 17/08 A3017 RMK A01 T01740077  RH  053%=      5-min Rain = 0
KCO1 110807Z 12005KT 17/08 A3017 RMK A01 T01740077  RH  053%=      5-min Rain = 0
KCO1 110808Z 12005KT 17/08 A3017 RMK A01 T01740077  RH  053%=      5-min Rain = 0
KCO1 110809Z 12005KT 17/08 A3017 RMK A01 T01730076  RH  053%=      5-min Rain = 0
KCO1 110810Z 13005KT 17/08 A3017 RMK A01 T01720076  RH  053%=      5-min Rain = 0
KCO1 110811Z 13005KT 17/08 A3017 RMK A01 T01710076  RH  053%=      5-min Rain = 0
KCO1 110812Z 13005KT 17/08 A3017 RMK A01 T01700075  RH  053%=      5-min Rain = 0
KCO1 110813Z 12006KT 17/08 A3017 RMK A01 T01700075  RH  054%=      5-min Rain = 0
KCO1 110814Z 12005KT 17/08 A3017 RMK A01 T01690075  RH  054%=      5-min Rain = 0
KCO1 110815Z 12005KT 17/08 A3017 RMK A01 T01690076  RH  054%=      5-min Rain = 0
KCO1 110816Z 12006KT 17/08 A3017 RMK A01 T01680076  RH  054%=      5-min Rain = 0
KCO1 110817Z 12006KT 17/08 A3017 RMK A01 T01680076  RH  054%=      5-min Rain = 0
KCO1 110818Z 12006KT 17/08 A3017 RMK A01 T01680076  RH  054%=      5-min Rain = 0
KCO1 110819Z 12006KT 17/08 A3017 RMK A01 T01680076  RH  055%=      5-min Rain = 0
KCO1 110820Z 12006KT 17/08 A3017 RMK A01 T01680076  RH  055%=      5-min Rain = 0
KCO1 110821Z 12006KT 17/08 A3017 RMK A01 T01680076  RH  054%=      5-min Rain = 0
KCO1 110822Z 12006KT 17/08 A3017 RMK A01 T01680075  RH  054%=      5-min Rain = 0
KCO1 110823Z 12006KT 17/08 A3017 RMK A01 T01680075  RH  054%=      5-min Rain = 0
KCO1 110824Z 12006KT 17/08 A3017 RMK A01 T01680075  RH  054%=      5-min Rain = 0
KCO1 110825Z 12006KT 17/08 A3018 RMK A01 T01680075  RH  054%=      5-min Rain = 0
KCO1 110826Z 12005KT 17/08 A3018 RMK A01 T01680076  RH  054%=      5-min Rain = 0
KCO1 110827Z 12005KT 17/08 A3018 RMK A01 T01680075  RH  054%=      5-min Rain = 0
KCO1 110828Z 13005KT 17/08 A3018 RMK A01 T01670075  RH  054%=      5-min Rain = 0
KCO1 110829Z 13005KT 17/08 A3018 RMK A01 T01670075  RH  055%=      5-min Rain = 0
KCO1 110830Z 13005KT 17/08 A3018 RMK A01 T01660075  RH  055%=      5-min Rain = 0
KCO1 110831Z 13005KT 17/08 A3018 RMK A01 T01660075  RH  055%=      5-min Rain = 0
KCO1 110832Z 13005KT 17/08 A3018 RMK A01 T01660075  RH  055%=      5-min Rain = 0
KCO1 110833Z 12005KT 17/08 A3018 RMK A01 T01660075  RH  055%=      5-min Rain = 0
KCO1 110834Z 12005KT 17/08 A3018 RMK A01 T01650075  RH  055%=      5-min Rain = 0
KCO1 110835Z 12005KT 17/08 A3018 RMK A01 T01650075  RH  055%=      5-min Rain = 0
KCO1 110836Z 12005KT 17/08 A3018 RMK A01 T01650075  RH  055%=      5-min Rain = 0
KCO1 110837Z 12005KT 17/08 A3018 RMK A01 T01650075  RH  055%=      5-min Rain = 0
KCO1 110838Z 12005KT 17/08 A3018 RMK A01 T01650075  RH  055%=      5-min Rain = 0
KCO1 110839Z 12005KT 17/08 A3018 RMK A01 T01650075  RH  055%=      5-min Rain = 0
KCO1 110840Z 12005KT 17/08 A3018 RMK A01 T01650075  RH  055%=      5-min Rain = 0
KCO1 110841Z 12005KT 17/08 A3017 RMK A01 T01650075  RH  055%=      5-min Rain = 0
KCO1 110842Z 12005KT 16/07 A3017 RMK A01 T01640074  RH  055%=      5-min Rain = 0
KCO1 110843Z 12005KT 16/07 A3017 RMK A01 T01630074  RH  055%=      5-min Rain = 0
KCO1 110844Z 12005KT 16/07 A3017 RMK A01 T01630074  RH  056%=      5-min Rain = 0
KCO1 110845Z 12005KT 16/07 A3017 RMK A01 T01630074  RH  056%=      5-min Rain = 0
KCO1 110846Z 12004KT 16/07 A3017 RMK A01 T01630074  RH  056%=      5-min Rain = 0
KCO1 110847Z 12004KT 16/07 A3017 RMK A01 T01630074  RH  056%=      5-min Rain = 0
KCO1 110848Z 12004KT 16/07 A3017 RMK A01 T01620073  RH  056%=      5-min Rain = 0
KCO1 110849Z 13004KT 16/07 A3017 RMK A01 T01620074  RH  056%=      5-min Rain = 0
KCO1 110850Z 13004KT 16/07 A3017 RMK A01 T01620074  RH  056%=      5-min Rain = 0
KCO1 110851Z 13005KT 16/07 A3017 RMK A01 T01610074  RH  056%=      5-min Rain = 0
KCO1 110852Z 13005KT 16/07 A3017 RMK A01 T01610074  RH  056%=      5-min Rain = 0
KCO1 110853Z 13005KT 16/07 A3017 RMK A01 T01610074  RH  056%=      5-min Rain = 0
KCO1 110854Z 12005KT 16/07 A3017 RMK A01 T01610074  RH  056%=      5-min Rain = 0
KCO1 110855Z 12005KT 16/07 A3017 RMK A01 T01610074  RH  056%=      5-min Rain = 0
KCO1 110856Z 13005KT 16/07 A3017 RMK A01 T01600074  RH  056%=      5-min Rain = 0
KCO1 110857Z 13005KT 16/07 A3017 RMK A01 T01600073  RH  056%=      5-min Rain = 0
KCO1 110858Z 13005KT 16/07 A3017 RMK A01 T01600074  RH  057%=      5-min Rain = 0
KCO1 110859Z 13005KT 16/07 A3017 RMK A01 T01600074  RH  057%=      5-min Rain = 0
KCO1 110900Z 13005KT 16/07 A3017 RMK A01 T01600074  RH  057%=      5-min Rain = 0
KCO1 110901Z 13005KT 16/08 A3017 RMK A01 T01600075  RH  057%=      5-min Rain = 0
KCO1 110902Z 13005KT 16/07 A3017 RMK A01 T01600074  RH  057%=      5-min Rain = 0
KCO1 110903Z 13005KT 16/08 A3017 RMK A01 T01600075  RH  057%=      5-min Rain = 0
KCO1 110904Z 13005KT 16/08 A3017 RMK A01 T01590075  RH  057%=      5-min Rain = 0
KCO1 110905Z 13005KT 16/08 A3017 RMK A01 T01600075  RH  057%=      5-min Rain = 0
KCO1 110906Z 13005KT 16/08 A3017 RMK A01 T01590075  RH  057%=      5-min Rain = 0
KCO1 110907Z 13005KT 16/08 A3017 RMK A01 T01600075  RH  057%=      5-min Rain = 0
KCO1 110908Z 13004KT 16/08 A3017 RMK A01 T01600075  RH  057%=      5-min Rain = 0
KCO1 110909Z 13004KT 16/07 A3017 RMK A01 T01590074  RH  057%=      5-min Rain = 0
KCO1 110910Z 13004KT 16/07 A3017 RMK A01 T01590074  RH  057%=      5-min Rain = 0
KCO1 110911Z 13004KT 16/08 A3017 RMK A01 T01590075  RH  057%=      5-min Rain = 0
KCO1 110912Z 13004KT 16/08 A3017 RMK A01 T01590075  RH  057%=      5-min Rain = 0
KCO1 110913Z 13004KT 16/07 A3017 RMK A01 T01590074  RH  057%=      5-min Rain = 0
KCO1 110914Z 13004KT 16/07 A3017 RMK A01 T01590074  RH  057%=      5-min Rain = 0
KCO1 110915Z 12004KT 16/07 A3017 RMK A01 T01590074  RH  057%=      5-min Rain = 0
KCO1 110916Z 11003KT 16/07 A3017 RMK A01 T01580073  RH  057%=      5-min Rain = 0
KCO1 110917Z 08003KT 16/07 A3017 RMK A01 T01580074  RH  057%=      5-min Rain = 0
KCO1 110918Z 08003KT 16/07 A3017 RMK A01 T01580073  RH  057%=      5-min Rain = 0
KCO1 110919Z 09003KT 16/07 A3017 RMK A01 T01580074  RH  057%=      5-min Rain = 0
KCO1 110920Z 08003KT 16/07 A3017 RMK A01 T01580074  RH  058%=      5-min Rain = 0
KCO1 110921Z 09003KT 16/07 A3017 RMK A01 T01580074  RH  058%=      5-min Rain = 0
KCO1 110922Z 09003KT 16/07 A3017 RMK A01 T01570074  RH  058%=      5-min Rain = 0
KCO1 110923Z 09003KT 16/07 A3017 RMK A01 T01570074  RH  058%=      5-min Rain = 0
KCO1 110924Z 09003KT 16/07 A3017 RMK A01 T01570074  RH  058%=      5-min Rain = 0
KCO1 110925Z 07003KT 16/07 A3017 RMK A01 T01570074  RH  058%=      5-min Rain = 0
KCO1 110926Z 07003KT 16/08 A3017 RMK A01 T01570075  RH  058%=      5-min Rain = 0
KCO1 110927Z 07004KT 16/07 A3017 RMK A01 T01570074  RH  058%=      5-min Rain = 0
KCO1 110928Z 07004KT 16/07 A3017 RMK A01 T01570074  RH  058%=      5-min Rain = 0
KCO1 110929Z 06003KT 16/07 A3017 RMK A01 T01570074  RH  058%=      5-min Rain = 0
KCO1 110930Z 06003KT 16/07 A3017 RMK A01 T01570073  RH  057%=      5-min Rain = 0
KCO1 110931Z 06003KT 16/07 A3017 RMK A01 T01580073  RH  057%=      5-min Rain = 0
KCO1 110932Z 06003KT 16/07 A3017 RMK A01 T01580073  RH  057%=      5-min Rain = 0
KCO1 110933Z 06002KT 16/07 A3017 RMK A01 T01570072  RH  057%=      5-min Rain = 0
KCO1 110934Z 06003KT 16/07 A3017 RMK A01 T01570072  RH  057%=      5-min Rain = 0
KCO1 110935Z 06003KT 16/07 A3017 RMK A01 T01570073  RH  057%=      5-min Rain = 0
KCO1 110936Z 06003KT 16/07 A3017 RMK A01 T01570073  RH  057%=      5-min Rain = 0
KCO1 110937Z 07003KT 16/07 A3017 RMK A01 T01570073  RH  057%=      5-min Rain = 0
KCO1 110938Z 07003KT 16/07 A3017 RMK A01 T01570073  RH  057%=      5-min Rain = 0
KCO1 110939Z 07002KT 16/07 A3017 RMK A01 T01570073  RH  057%=      5-min Rain = 0
KCO1 110940Z 07003KT 16/07 A3017 RMK A01 T01570074  RH  058%=      5-min Rain = 0
KCO1 110941Z 07003KT 16/07 A3017 RMK A01 T01570074  RH  058%=      5-min Rain = 0
KCO1 110942Z 07003KT 16/07 A3017 RMK A01 T01570074  RH  058%=      5-min Rain = 0
KCO1 110943Z 07003KT 16/07 A3017 RMK A01 T01570074  RH  058%=      5-min Rain = 0
KCO1 110944Z 07003KT 16/07 A3017 RMK A01 T01570073  RH  058%=      5-min Rain = 0
KCO1 110945Z 07003KT 16/07 A3017 RMK A01 T01570073  RH  057%=      5-min Rain = 0
KCO1 110946Z 07003KT 16/07 A3017 RMK A01 T01560072  RH  057%=      5-min Rain = 0
KCO1 110947Z 07003KT 16/07 A3017 RMK A01 T01560072  RH  057%=      5-min Rain = 0
KCO1 110948Z 07004KT 16/07 A3017 RMK A01 T01550071  RH  057%=      5-min Rain = 0
KCO1 110949Z 07004KT 16/07 A3017 RMK A01 T01550072  RH  058%=      5-min Rain = 0
KCO1 110950Z 07004KT 16/07 A3017 RMK A01 T01550072  RH  058%=      5-min Rain = 0
KCO1 110951Z 07004KT 16/07 A3017 RMK A01 T01550072  RH  058%=      5-min Rain = 0
KCO1 110952Z 07004KT 15/07 A3017 RMK A01 T01540072  RH  058%=      5-min Rain = 0
KCO1 110953Z 07004KT 16/07 A3017 RMK A01 T01550072  RH  058%=      5-min Rain = 0
KCO1 110954Z 07004KT 16/07 A3017 RMK A01 T01550073  RH  058%=      5-min Rain = 0
KCO1 110955Z 08004KT 16/07 A3017 RMK A01 T01560073  RH  058%=      5-min Rain = 0
KCO1 110956Z 07004KT 16/07 A3017 RMK A01 T01560073  RH  058%=      5-min Rain = 0
KCO1 110957Z 07004KT 16/07 A3017 RMK A01 T01570073  RH  057%=      5-min Rain = 0
KCO1 110958Z 07004KT 16/07 A3017 RMK A01 T01570073  RH  057%=      5-min Rain = 0
KCO1 110959Z 07004KT 16/07 A3017 RMK A01 T01570073  RH  057%=      5-min Rain = 0
KCO1 111000Z 07004KT 16/07 A3017 RMK A01 T01580073  RH  057%=      5-min Rain = 0
KCO1 111001Z 07004KT 16/07 A3017 RMK A01 T01570073  RH  057%=      5-min Rain = 0
KCO1 111002Z 07004KT 16/07 A3017 RMK A01 T01570073  RH  057%=      5-min Rain = 0
KCO1 111003Z 07004KT 16/07 A3017 RMK A01 T01570073  RH  057%=      5-min Rain = 0
KCO1 111004Z 07004KT 16/07 A3017 RMK A01 T01570073  RH  057%=      5-min Rain = 0
KCO1 111005Z 07004KT 16/07 A3017 RMK A01 T01580073  RH  057%=      5-min Rain = 0
KCO1 111006Z 07004KT 16/07 A3017 RMK A01 T01570073  RH  057%=      5-min Rain = 0
KCO1 111007Z 07004KT 16/07 A3017 RMK A01 T01570073  RH  057%=      5-min Rain = 0
KCO1 111008Z 07004KT 16/07 A3017 RMK A01 T01570073  RH  057%=      5-min Rain = 0
KCO1 111009Z 07004KT 16/07 A3017 RMK A01 T01570072  RH  057%=      5-min Rain = 0
KCO1 111010Z 07004KT 16/07 A3017 RMK A01 T01570072  RH  057%=      5-min Rain = 0
KCO1 111011Z 07004KT 16/07 A3017 RMK A01 T01570072  RH  057%=      5-min Rain = 0
KCO1 111012Z 07004KT 16/07 A3017 RMK A01 T01570072  RH  057%=      5-min Rain = 0
KCO1 111013Z 07004KT 16/07 A3017 RMK A01 T01570073  RH  057%=      5-min Rain = 0
KCO1 111014Z 08004KT 16/07 A3017 RMK A01 T01570072  RH  057%=      5-min Rain = 0
KCO1 111015Z 08004KT 16/07 A3017 RMK A01 T01570072  RH  057%=      5-min Rain = 0
KCO1 111016Z 08004KT 16/07 A3017 RMK A01 T01570072  RH  057%=      5-min Rain = 0
KCO1 111017Z 08004KT 16/07 A3017 RMK A01 T01570073  RH  057%=      5-min Rain = 0
KCO1 111018Z 08004KT 16/07 A3017 RMK A01 T01570072  RH  057%=      5-min Rain = 0
KCO1 111019Z 08004KT 16/07 A3017 RMK A01 T01560072  RH  057%=      5-min Rain = 0
KCO1 111020Z 08004KT 16/07 A3017 RMK A01 T01560072  RH  058%=      5-min Rain = 0
KCO1 111021Z 08004KT 16/07 A3017 RMK A01 T01550072  RH  058%=      5-min Rain = 0
KCO1 111022Z 08004KT 16/07 A3017 RMK A01 T01550072  RH  058%=      5-min Rain = 0
KCO1 111023Z 08004KT 15/07 A3017 RMK A01 T01540072  RH  058%=      5-min Rain = 0
KCO1 111024Z 08004KT 15/07 A3017 RMK A01 T01540072  RH  058%=      5-min Rain = 0
KCO1 111025Z 08004KT 15/07 A3017 RMK A01 T01530071  RH  058%=      5-min Rain = 0
KCO1 111026Z 08004KT 15/07 A3017 RMK A01 T01520071  RH  058%=      5-min Rain = 0
KCO1 111027Z 08004KT 15/07 A3017 RMK A01 T01520071  RH  058%=      5-min Rain = 0
KCO1 111028Z 08004KT 15/07 A3017 RMK A01 T01520071  RH  058%=      5-min Rain = 0
KCO1 111029Z 08004KT 15/07 A3017 RMK A01 T01510071  RH  059%=      5-min Rain = 0
KCO1 111030Z 08004KT 15/07 A3017 RMK A01 T01510071  RH  059%=      5-min Rain = 0
KCO1 111031Z 08004KT 15/07 A3017 RMK A01 T01510071  RH  059%=      5-min Rain = 0
KCO1 111032Z 08003KT 15/07 A3017 RMK A01 T01510071  RH  059%=      5-min Rain = 0
KCO1 111033Z 08003KT 15/07 A3017 RMK A01 T01510071  RH  059%=      5-min Rain = 0
KCO1 111034Z 08003KT 15/07 A3017 RMK A01 T01510071  RH  059%=      5-min Rain = 0
KCO1 111035Z 08003KT 15/07 A3017 RMK A01 T01510071  RH  059%=      5-min Rain = 0
KCO1 111036Z 08004KT 15/07 A3017 RMK A01 T01500071  RH  059%=      5-min Rain = 0
KCO1 111037Z 08004KT 15/07 A3017 RMK A01 T01500071  RH  059%=      5-min Rain = 0
KCO1 111038Z 08004KT 15/07 A3017 RMK A01 T01510071  RH  059%=      5-min Rain = 0
KCO1 111039Z 08004KT 15/07 A3017 RMK A01 T01500071  RH  059%=      5-min Rain = 0
KCO1 111040Z 08004KT 15/07 A3017 RMK A01 T01500071  RH  059%=      5-min Rain = 0
KCO1 111041Z 08004KT 15/07 A3017 RMK A01 T01500071  RH  059%=      5-min Rain = 0
KCO1 111042Z 08004KT 15/07 A3017 RMK A01 T01500070  RH  059%=      5-min Rain = 0
KCO1 111043Z 08004KT 15/07 A3017 RMK A01 T01500070  RH  059%=      5-min Rain = 0
KCO1 111044Z 08003KT 15/07 A3017 RMK A01 T01500071  RH  059%=      5-min Rain = 0
KCO1 111045Z 08004KT 15/07 A3017 RMK A01 T01500071  RH  059%=      5-min Rain = 0
KCO1 111046Z 08004KT 15/07 A3017 RMK A01 T01490071  RH  059%=      5-min Rain = 0
KCO1 111047Z 07004KT 15/07 A3017 RMK A01 T01490071  RH  059%=      5-min Rain = 0
KCO1 111048Z 07004KT 15/07 A3017 RMK A01 T01500071  RH  059%=      5-min Rain = 0
KCO1 111049Z 08004KT 15/07 A3018 RMK A01 T01500071  RH  059%=      5-min Rain = 0
KCO1 111050Z 08003KT 15/07 A3018 RMK A01 T01500071  RH  059%=      5-min Rain = 0
KCO1 111051Z 08003KT 15/07 A3018 RMK A01 T01500071  RH  059%=      5-min Rain = 0
KCO1 111052Z 08003KT 15/07 A3018 RMK A01 T01490071  RH  059%=      5-min Rain = 0
KCO1 111053Z 08003KT 15/07 A3018 RMK A01 T01500071  RH  059%=      5-min Rain = 0
KCO1 111054Z 08003KT 15/07 A3018 RMK A01 T01490070  RH  059%=      5-min Rain = 0
KCO1 111055Z 09003KT 15/07 A3018 RMK A01 T01490070  RH  059%=      5-min Rain = 0
KCO1 111056Z 08003KT 15/07 A3018 RMK A01 T01490070  RH  059%=      5-min Rain = 0
KCO1 111057Z 08003KT 15/07 A3018 RMK A01 T01480070  RH  059%=      5-min Rain = 0
KCO1 111058Z 08003KT 15/07 A3018 RMK A01 T01480070  RH  059%=      5-min Rain = 0
KCO1 111059Z 08003KT 15/07 A3018 RMK A01 T01480070  RH  059%=      5-min Rain = 0
KCO1 111100Z 08002KT 15/07 A3018 RMK A01 T01470069  RH  059%=      5-min Rain = 0
KCO1 111101Z 09002KT 15/07 A3018 RMK A01 T01470069  RH  059%=      5-min Rain = 0
KCO1 111102Z 10002KT 15/07 A3018 RMK A01 T01470068  RH  059%=      5-min Rain = 0
KCO1 111103Z 09002KT 15/07 A3018 RMK A01 T01460067  RH  059%=      5-min Rain = 0
KCO1 111104Z 09002KT 15/07 A3018 RMK A01 T01460067  RH  059%=      5-min Rain = 0
KCO1 111105Z 08002KT 15/07 A3018 RMK A01 T01460068  RH  060%=      5-min Rain = 0
KCO1 111106Z 08002KT 15/07 A3018 RMK A01 T01450068  RH  060%=      5-min Rain = 0
KCO1 111107Z 08002KT 15/07 A3018 RMK A01 T01450068  RH  060%=      5-min Rain = 0
KCO1 111108Z 08003KT 15/07 A3018 RMK A01 T01460068  RH  060%=      5-min Rain = 0
KCO1 111109Z 09003KT 15/07 A3018 RMK A01 T01450067  RH  060%=      5-min Rain = 0
KCO1 111110Z 10003KT 15/07 A3018 RMK A01 T01450067  RH  059%=      5-min Rain = 0
KCO1 111111Z 10003KT 15/07 A3018 RMK A01 T01460068  RH  059%=      5-min Rain = 0
KCO1 111112Z 10003KT 15/07 A3018 RMK A01 T01460068  RH  060%=      5-min Rain = 0
KCO1 111113Z 09003KT 15/07 A3018 RMK A01 T01450067  RH  060%=      5-min Rain = 0
KCO1 111114Z 10003KT 15/07 A3018 RMK A01 T01450068  RH  060%=      5-min Rain = 0
KCO1 111115Z 10003KT 15/07 A3018 RMK A01 T01450068  RH  060%=      5-min Rain = 0
KCO1 111116Z 10003KT 15/07 A3018 RMK A01 T01450068  RH  060%=      5-min Rain = 0
KCO1 111117Z 09004KT 15/07 A3018 RMK A01 T01450068  RH  060%=      5-min Rain = 0
KCO1 111118Z 09004KT 15/07 A3018 RMK A01 T01450067  RH  060%=      5-min Rain = 0
KCO1 111119Z 09004KT 14/07 A3018 RMK A01 T01440067  RH  060%=      5-min Rain = 0
KCO1 111120Z 09004KT 14/07 A3018 RMK A01 T01440067  RH  060%=      5-min Rain = 0
KCO1 111121Z 09004KT 14/07 A3018 RMK A01 T01430067  RH  060%=      5-min Rain = 0
KCO1 111122Z 09004KT 14/07 A3018 RMK A01 T01430067  RH  060%=      5-min Rain = 0
KCO1 111123Z 09004KT 14/07 A3018 RMK A01 T01430068  RH  061%=      5-min Rain = 0
KCO1 111124Z 09004KT 14/07 A3018 RMK A01 T01430069  RH  061%=      5-min Rain = 0
KCO1 111125Z 09004KT 14/07 A3018 RMK A01 T01430069  RH  061%=      5-min Rain = 0
KCO1 111126Z 09004KT 14/07 A3018 RMK A01 T01440070  RH  061%=      5-min Rain = 0
KCO1 111127Z 09004KT 14/07 A3018 RMK A01 T01440070  RH  061%=      5-min Rain = 0
KCO1 111128Z 08005KT 14/07 A3018 RMK A01 T01440070  RH  061%=      5-min Rain = 0
KCO1 111129Z 08005KT 15/07 A3018 RMK A01 T01450070  RH  061%=      5-min Rain = 0
KCO1 111130Z 08005KT 15/07 A3018 RMK A01 T01450070  RH  061%=      5-min Rain = 0
KCO1 111131Z 08005KT 15/07 A3018 RMK A01 T01460070  RH  061%=      5-min Rain = 0
KCO1 111132Z 08005KT 15/07 A3018 RMK A01 T01450070  RH  061%=      5-min Rain = 0
KCO1 111133Z 08005KT 15/07 A3018 RMK A01 T01460070  RH  061%=      5-min Rain = 0
KCO1 111134Z 08005KT 15/07 A3018 RMK A01 T01460070  RH  060%=      5-min Rain = 0
KCO1 111135Z 08005KT 15/07 A3018 RMK A01 T01460070  RH  060%=      5-min Rain = 0
KCO1 111136Z 08005KT 15/07 A3018 RMK A01 T01460070  RH  060%=      5-min Rain = 0
KCO1 111137Z 08005KT 15/07 A3018 RMK A01 T01460070  RH  060%=      5-min Rain = 0
KCO1 111138Z 08005KT 15/07 A3018 RMK A01 T01460071  RH  060%=      5-min Rain = 0
KCO1 111139Z 08005KT 15/07 A3018 RMK A01 T01460070  RH  060%=      5-min Rain = 0
KCO1 111140Z 08005KT 15/07 A3018 RMK A01 T01460071  RH  060%=      5-min Rain = 0
KCO1 111141Z 08005KT 15/07 A3018 RMK A01 T01460071  RH  060%=      5-min Rain = 0
KCO1 111142Z 09004KT 15/07 A3018 RMK A01 T01470071  RH  060%=      5-min Rain = 0
KCO1 111143Z 08004KT 15/07 A3018 RMK A01 T01470070  RH  060%=      5-min Rain = 0
KCO1 111144Z 08005KT 15/07 A3018 RMK A01 T01460070  RH  060%=      5-min Rain = 0
KCO1 111145Z 08005KT 15/07 A3018 RMK A01 T01460070  RH  060%=      5-min Rain = 0
KCO1 111146Z 08005KT 15/07 A3018 RMK A01 T01460070  RH  060%=      5-min Rain = 0
KCO1 111147Z 08005KT 15/07 A3018 RMK A01 T01450070  RH  060%=      5-min Rain = 0
KCO1 111148Z 08005KT 15/07 A3018 RMK A01 T01450070  RH  061%=      5-min Rain = 0
KCO1 111149Z 08005KT 14/07 A3018 RMK A01 T01440070  RH  061%=      5-min Rain = 0
KCO1 111150Z 08005KT 14/07 A3018 RMK A01 T01440070  RH  061%=      5-min Rain = 0
KCO1 111151Z 08005KT 14/07 A3018 RMK A01 T01440070  RH  061%=      5-min Rain = 0
KCO1 111152Z 08005KT 14/07 A3018 RMK A01 T01440070  RH  061%=      5-min Rain = 0
KCO1 111153Z 08005KT 14/07 A3018 RMK A01 T01440070  RH  061%=      5-min Rain = 0
KCO1 111154Z 08005KT 14/07 A3018 RMK A01 T01440070  RH  061%=      5-min Rain = 0
KCO1 111155Z 08005KT 14/07 A3018 RMK A01 T01440070  RH  061%=      5-min Rain = 0
KCO1 111156Z 08005KT 14/07 A3018 RMK A01 T01440070  RH  061%=      5-min Rain = 0
KCO1 111157Z 08005KT 14/07 A3018 RMK A01 T01440070  RH  061%=      5-min Rain = 0
KCO1 111158Z 08004KT 14/07 A3018 RMK A01 T01440070  RH  061%=      5-min Rain = 0
KCO1 111159Z 08004KT 14/07 A3018 RMK A01 T01430070  RH  061%=      5-min Rain = 0
KCO1 111200Z 08005KT 14/07 A3018 RMK A01 T01430070  RH  061%=      5-min Rain = 0
KCO1 111201Z 08005KT 14/07 A3018 RMK A01 T01430070  RH  062%=      5-min Rain = 0
KCO1 111202Z 08004KT 14/07 A3018 RMK A01 T01430070  RH  062%=      5-min Rain = 0
KCO1 111203Z 08004KT 14/07 A3018 RMK A01 T01430071  RH  062%=      5-min Rain = 0
KCO1 111204Z 08004KT 14/07 A3018 RMK A01 T01430070  RH  062%=      5-min Rain = 0
KCO1 111205Z 08004KT 14/07 A3018 RMK A01 T01430070  RH  062%=      5-min Rain = 0
KCO1 111206Z 08004KT 14/07 A3018 RMK A01 T01430071  RH  062%=      5-min Rain = 0
KCO1 111207Z 08004KT 14/07 A3019 RMK A01 T01430071  RH  062%=      5-min Rain = 0
KCO1 111208Z 08004KT 14/07 A3019 RMK A01 T01430071  RH  062%=      5-min Rain = 0
KCO1 111209Z 08004KT 14/07 A3019 RMK A01 T01430071  RH  062%=      5-min Rain = 0
KCO1 111210Z 08005KT 14/07 A3019 RMK A01 T01430071  RH  062%=      5-min Rain = 0
KCO1 111211Z 08005KT 14/07 A3019 RMK A01 T01430072  RH  062%=      5-min Rain = 0
KCO1 111212Z 08005KT 14/07 A3019 RMK A01 T01430072  RH  062%=      5-min Rain = 0
KCO1 111213Z 08005KT 14/07 A3019 RMK A01 T01440072  RH  062%=      5-min Rain = 0
KCO1 111214Z 08004KT 14/07 A3019 RMK A01 T01440072  RH  062%=      5-min Rain = 0
KCO1 111215Z 08005KT 14/07 A3019 RMK A01 T01440071  RH  062%=      5-min Rain = 0
KCO1 111216Z 08005KT 14/07 A3019 RMK A01 T01430071  RH  062%=      5-min Rain = 0
KCO1 111217Z 08005KT 14/07 A3019 RMK A01 T01440072  RH  062%=      5-min Rain = 0
KCO1 111218Z 08005KT 14/07 A3019 RMK A01 T01440072  RH  062%=      5-min Rain = 0
KCO1 111219Z 08004KT 14/07 A3019 RMK A01 T01440073  RH  062%=      5-min Rain = 0
KCO1 111220Z 08005KT 14/07 A3019 RMK A01 T01440072  RH  062%=      5-min Rain = 0
KCO1 111221Z 08005KT 15/07 A3019 RMK A01 T01450072  RH  062%=      5-min Rain = 0
KCO1 111222Z 08005KT 15/07 A3019 RMK A01 T01450073  RH  062%=      5-min Rain = 0
KCO1 111223Z 08005KT 15/07 A3019 RMK A01 T01450073  RH  062%=      5-min Rain = 0
KCO1 111224Z 08005KT 15/07 A3019 RMK A01 T01450073  RH  062%=      5-min Rain = 0
KCO1 111225Z 08005KT 15/07 A3019 RMK A01 T01450073  RH  062%=      5-min Rain = 0
KCO1 111226Z 08005KT 15/07 A3019 RMK A01 T01450073  RH  062%=      5-min Rain = 0
KCO1 111227Z 09005KT 15/07 A3019 RMK A01 T01450073  RH  062%=      5-min Rain = 0
KCO1 111228Z 08005KT 15/07 A3019 RMK A01 T01450074  RH  062%=      5-min Rain = 0
KCO1 111229Z 08004KT 15/07 A3019 RMK A01 T01450074  RH  062%=      5-min Rain = 0
KCO1 111230Z 08004KT 15/07 A3019 RMK A01 T01450074  RH  063%=      5-min Rain = 0
KCO1 111231Z 08004KT 14/07 A3019 RMK A01 T01440074  RH  063%=      5-min Rain = 0
KCO1 111232Z 08005KT 14/07 A3019 RMK A01 T01440074  RH  063%=      5-min Rain = 0
KCO1 111233Z 08004KT 14/07 A3019 RMK A01 T01440074  RH  063%=      5-min Rain = 0
KCO1 111234Z 08004KT 15/08 A3019 RMK A01 T01450075  RH  063%=      5-min Rain = 0
KCO1 111235Z 08004KT 14/07 A3019 RMK A01 T01440074  RH  063%=      5-min Rain = 0
KCO1 111236Z 08004KT 14/08 A3019 RMK A01 T01440075  RH  063%=      5-min Rain = 0
KCO1 111237Z 08005KT 14/08 A3019 RMK A01 T01440075  RH  063%=      5-min Rain = 0
KCO1 111238Z 08005KT 15/08 A3019 RMK A01 T01450075  RH  063%=      5-min Rain = 0
KCO1 111239Z 08004KT 14/08 A3019 RMK A01 T01440075  RH  063%=      5-min Rain = 0
KCO1 111240Z 08004KT 14/08 A3019 RMK A01 T01440075  RH  063%=      5-min Rain = 0
KCO1 111241Z 08005KT 15/08 A3019 RMK A01 T01450075  RH  063%=      5-min Rain = 0
KCO1 111242Z 08005KT 14/08 A3019 RMK A01 T01440075  RH  063%=      5-min Rain = 0
KCO1 111243Z 08005KT 14/08 A3019 RMK A01 T01440075  RH  063%=      5-min Rain = 0
KCO1 111244Z 08005KT 15/08 A3019 RMK A01 T01450076  RH  063%=      5-min Rain = 0
KCO1 111245Z 08005KT 15/08 A3019 RMK A01 T01450076  RH  063%=      5-min Rain = 0
KCO1 111246Z 08006KT 15/08 A3019 RMK A01 T01460076  RH  063%=      5-min Rain = 0
KCO1 111247Z 08006KT 15/08 A3019 RMK A01 T01460077  RH  063%=      5-min Rain = 0
KCO1 111248Z 08005KT 15/08 A3019 RMK A01 T01460076  RH  063%=      5-min Rain = 0
KCO1 111249Z 08006KT 15/08 A3019 RMK A01 T01470077  RH  063%=      5-min Rain = 0
KCO1 111250Z 08006KT 15/08 A3019 RMK A01 T01470077  RH  063%=      5-min Rain = 0
KCO1 111251Z 08005KT 15/08 A3019 RMK A01 T01480078  RH  063%=      5-min Rain = 0
KCO1 111252Z 08005KT 15/08 A3019 RMK A01 T01480078  RH  063%=      5-min Rain = 0
KCO1 111253Z 08005KT 15/08 A3019 RMK A01 T01490079  RH  063%=      5-min Rain = 0
KCO1 111254Z 08005KT 15/08 A3019 RMK A01 T01490079  RH  063%=      5-min Rain = 0
KCO1 111255Z 08005KT 15/08 A3019 RMK A01 T01500079  RH  063%=      5-min Rain = 0
KCO1 111256Z 08005KT 15/08 A3019 RMK A01 T01500079  RH  062%=      5-min Rain = 0
KCO1 111257Z 08005KT 15/08 A3019 RMK A01 T01510079  RH  062%=      5-min Rain = 0
KCO1 111258Z 08005KT 15/08 A3019 RMK A01 T01510079  RH  062%=      5-min Rain = 0
KCO1 111259Z 08004KT 15/08 A3019 RMK A01 T01520079  RH  062%=      5-min Rain = 0
KCO1 111300Z 08004KT 15/08 A3019 RMK A01 T01520079  RH  062%=      5-min Rain = 0
KCO1 111301Z 08005KT 15/08 A3019 RMK A01 T01520079  RH  062%=      5-min Rain = 0
KCO1 111302Z 08005KT 15/08 A3019 RMK A01 T01530079  RH  061%=      5-min Rain = 0
KCO1 111303Z 08006KT 15/08 A3019 RMK A01 T01530079  RH  061%=      5-min Rain = 0
KCO1 111304Z 08005KT 15/08 A3019 RMK A01 T01540079  RH  061%=      5-min Rain = 0
KCO1 111305Z 08005KT 15/08 A3019 RMK A01 T01540079  RH  061%=      5-min Rain = 0
KCO1 111306Z 09005KT 16/08 A3019 RMK A01 T01550079  RH  061%=      5-min Rain = 0
KCO1 111307Z 08005KT 16/08 A3019 RMK A01 T01550079  RH  061%=      5-min Rain = 0
KCO1 111308Z 08006KT 16/08 A3019 RMK A01 T01550079  RH  060%=      5-min Rain = 0
KCO1 111309Z 08005KT 16/08 A3019 RMK A01 T01560079  RH  060%=      5-min Rain = 0
KCO1 111310Z 08005KT 16/08 A3019 RMK A01 T01560080  RH  060%=      5-min Rain = 0
KCO1 111311Z 08005KT 16/08 A3019 RMK A01 T01570080  RH  060%=      5-min Rain = 0
KCO1 111312Z 08005KT 16/08 A3019 RMK A01 T01570080  RH  060%=      5-min Rain = 0
KCO1 111313Z 08005KT 16/08 A3019 RMK A01 T01570080  RH  060%=      5-min Rain = 0
KCO1 111314Z 08005KT 16/08 A3019 RMK A01 T01580080  RH  060%=      5-min Rain = 0
KCO1 111315Z 08005KT 16/08 A3019 RMK A01 T01580080  RH  060%=      5-min Rain = 0
KCO1 111316Z 08005KT 16/08 A3019 RMK A01 T01590080  RH  059%=      5-min Rain = 0
KCO1 111317Z 08005KT 16/08 A3019 RMK A01 T01590080  RH  059%=      5-min Rain = 0
KCO1 111318Z 08004KT 16/08 A3019 RMK A01 T01600080  RH  059%=      5-min Rain = 0
KCO1 111319Z 08004KT 16/08 A3019 RMK A01 T01600081  RH  059%=      5-min Rain = 0
KCO1 111320Z 08005KT 16/08 A3019 RMK A01 T01610081  RH  059%=      5-min Rain = 0
KCO1 111321Z 09004KT 16/08 A3019 RMK A01 T01610081  RH  059%=      5-min Rain = 0
KCO1 111322Z 09003KT 16/08 A3019 RMK A01 T01620082  RH  059%=      5-min Rain = 0
KCO1 111323Z 08003KT 16/08 A3019 RMK A01 T01620081  RH  059%=      5-min Rain = 0
KCO1 111324Z 09004KT 16/08 A3019 RMK A01 T01630082  RH  059%=      5-min Rain = 0
KCO1 111325Z 09004KT 16/08 A3019 RMK A01 T01630082  RH  058%=      5-min Rain = 0
KCO1 111326Z 09005KT 16/08 A3019 RMK A01 T01640082  RH  058%=      5-min Rain = 0
KCO1 111327Z 09005KT 17/08 A3019 RMK A01 T01650081  RH  058%=      5-min Rain = 0
KCO1 111328Z 09004KT 17/08 A3019 RMK A01 T01650081  RH  058%=      5-min Rain = 0
KCO1 111329Z 09004KT 17/08 A3019 RMK A01 T01660082  RH  057%=      5-min Rain = 0
KCO1 111330Z 09004KT 17/08 A3019 RMK A01 T01670082  RH  057%=      5-min Rain = 0
KCO1 111331Z 09005KT 17/08 A3019 RMK A01 T01680082  RH  057%=      5-min Rain = 0
KCO1 111332Z 09005KT 17/08 A3019 RMK A01 T01690082  RH  057%=      5-min Rain = 0
KCO1 111333Z 09005KT 17/08 A3019 RMK A01 T01700083  RH  056%=      5-min Rain = 0
KCO1 111334Z 09006KT 17/08 A3019 RMK A01 T01710083  RH  056%=      5-min Rain = 0
KCO1 111335Z 09005KT 17/08 A3019 RMK A01 T01720083  RH  056%=      5-min Rain = 0
KCO1 111336Z 09006KT 17/08 A3019 RMK A01 T01720083  RH  056%=      5-min Rain = 0
KCO1 111337Z 09005KT 17/08 A3019 RMK A01 T01730084  RH  056%=      5-min Rain = 0
KCO1 111338Z 08005KT 17/08 A3019 RMK A01 T01740084  RH  055%=      5-min Rain = 0
KCO1 111339Z 09004KT 18/08 A3019 RMK A01 T01750084  RH  055%=      5-min Rain = 0
KCO1 111340Z 09004KT 18/09 A3019 RMK A01 T01770085  RH  055%=      5-min Rain = 0
KCO1 111341Z 09005KT 18/09 A3019 RMK A01 T01770085  RH  054%=      5-min Rain = 0
KCO1 111342Z 09006KT 18/09 A3019 RMK A01 T01790085  RH  054%=      5-min Rain = 0
KCO1 111343Z 09006KT 18/09 A3019 RMK A01 T01800086  RH  054%=      5-min Rain = 0
KCO1 111344Z 09006KT 18/09 A3019 RMK A01 T01810086  RH  054%=      5-min Rain = 0
KCO1 111345Z 09006KT 18/09 A3019 RMK A01 T01820086  RH  054%=      5-min Rain = 0
KCO1 111346Z 09005KT 18/09 A3019 RMK A01 T01830087  RH  053%=      5-min Rain = 0
KCO1 111347Z 09006KT 18/09 A3019 RMK A01 T01840087  RH  053%=      5-min Rain = 0
KCO1 111348Z 10005KT 19/09 A3019 RMK A01 T01850088  RH  053%=      5-min Rain = 0
KCO1 111349Z 09006KT 19/09 A302 RMK A01 T01870088  RH  053%=      5-min Rain = 0
KCO1 111350Z 09006KT 19/09 A302 RMK A01 T01880089  RH  052%=      5-min Rain = 0
KCO1 111351Z 09006KT 19/09 A302 RMK A01 T01880088  RH  052%=      5-min Rain = 0
KCO1 111352Z 10006KT 19/09 A302 RMK A01 T01890088  RH  052%=      5-min Rain = 0
KCO1 111353Z 09006KT 19/09 A302 RMK A01 T01900089  RH  052%=      5-min Rain = 0
KCO1 111354Z 09007KT 19/09 A302 RMK A01 T01910090  RH  052%=      5-min Rain = 0
KCO1 111355Z 08006KT 19/09 A302 RMK A01 T01910089  RH  052%=      5-min Rain = 0
KCO1 111356Z 09007KT 19/09 A302 RMK A01 T01920090  RH  051%=      5-min Rain = 0
KCO1 111357Z 09008KT 19/09 A302 RMK A01 T01930090  RH  051%=      5-min Rain = 0
KCO1 111358Z 09007KT 19/09 A302 RMK A01 T01930090  RH  051%=      5-min Rain = 0
KCO1 111359Z 09006KT 19/09 A302 RMK A01 T01930090  RH  051%=      5-min Rain = 0
KCO1 111400Z 09005KT 19/09 A302 RMK A01 T01940091  RH  051%=      5-min Rain = 0
KCO1 111401Z 09007KT 20/09 A302 RMK A01 T01950092  RH  051%=      5-min Rain = 0
KCO1 111402Z 09007KT 20/09 A302 RMK A01 T01970091  RH  051%=      5-min Rain = 0
KCO1 111403Z 09006KT 20/09 A302 RMK A01 T01970092  RH  050%=      5-min Rain = 0
KCO1 111404Z 09006KT 20/09 A302 RMK A01 T01980092  RH  050%=      5-min Rain = 0
KCO1 111405Z 10007KT 20/09 A302 RMK A01 T01990093  RH  050%=      5-min Rain = 0
KCO1 111406Z 10006KT 20/09 A302 RMK A01 T02000093  RH  050%=      5-min Rain = 0
KCO1 111407Z 09006KT 20/09 A302 RMK A01 T02000093  RH  050%=      5-min Rain = 0
KCO1 111408Z 09006KT 20/09 A302 RMK A01 T02010093  RH  050%=      5-min Rain = 0
KCO1 111409Z 10005KT 20/09 A302 RMK A01 T02010093  RH  050%=      5-min Rain = 0
KCO1 111410Z 10007KT 20/09 A302 RMK A01 T02030094  RH  050%=      5-min Rain = 0
KCO1 111411Z 10007KT 20/09 A302 RMK A01 T02030094  RH  049%=      5-min Rain = 0
KCO1 111412Z 10006KT 20/09 A302 RMK A01 T02030094  RH  050%=      5-min Rain = 0
KCO1 111413Z 10005KT 20/09 A302 RMK A01 T02030094  RH  050%=      5-min Rain = 0
KCO1 111414Z 09006KT 20/10 A302 RMK A01 T02040095  RH  049%=      5-min Rain = 0
KCO1 111415Z 11005KT 21/10 A302 RMK A01 T02050095  RH  049%=      5-min Rain = 0
KCO1 111416Z 10005KT 21/10 A302 RMK A01 T02060096  RH  049%=      5-min Rain = 0
KCO1 111417Z 11004KT 21/10 A302 RMK A01 T02060097  RH  049%=      5-min Rain = 0
KCO1 111418Z 09006KT 21/10 A302 RMK A01 T02080097  RH  049%=      5-min Rain = 0
KCO1 111419Z 10005KT 21/10 A302 RMK A01 T02090097  RH  049%=      5-min Rain = 0
KCO1 111420Z 10005KT 21/10 A302 RMK A01 T02100097  RH  048%=      5-min Rain = 0
KCO1 111421Z 11006KT 21/10 A302 RMK A01 T02100097  RH  048%=      5-min Rain = 0
KCO1 111422Z 11006KT 21/10 A302 RMK A01 T02110097  RH  048%=      5-min Rain = 0
KCO1 111423Z 10005KT 21/10 A302 RMK A01 T02110098  RH  048%=      5-min Rain = 0
KCO1 111424Z 11007KT 21/10 A302 RMK A01 T02110099  RH  048%=      5-min Rain = 0
KCO1 111425Z 11005KT 21/10 A302 RMK A01 T02120098  RH  048%=      5-min Rain = 0
KCO1 111426Z 09006KT 21/10 A302 RMK A01 T02120098  RH  048%=      5-min Rain = 0
KCO1 111427Z 10006KT 21/10 A302 RMK A01 T02130099  RH  048%=      5-min Rain = 0
KCO1 111428Z 10006KT 21/10 A302 RMK A01 T02130099  RH  048%=      5-min Rain = 0
KCO1 111429Z 10007KT 21/10 A302 RMK A01 T02140099  RH  048%=      5-min Rain = 0
KCO1 111430Z 11006KT 21/10 A302 RMK A01 T02140099  RH  048%=      5-min Rain = 0
KCO1 111431Z 10007KT 22/10 A302 RMK A01 T02150100  RH  048%=      5-min Rain = 0
KCO1 111432Z 11009KT 22/10 A302 RMK A01 T02150100  RH  048%=      5-min Rain = 0
KCO1 111433Z 13006KT 22/10 A302 RMK A01 T02150100  RH  048%=      5-min Rain = 0
KCO1 111434Z 12005KT 22/10 A302 RMK A01 T02160102  RH  048%=      5-min Rain = 0
KCO1 111435Z 12008KT 22/10 A302 RMK A01 T02170101  RH  048%=      5-min Rain = 0
KCO1 111436Z 12008KT 22/10 A302 RMK A01 T02170101  RH  048%=      5-min Rain = 0
KCO1 111437Z 11007KT 22/10 A302 RMK A01 T02170101  RH  048%=      5-min Rain = 0
KCO1 111438Z 12006KT 22/10 A302 RMK A01 T02170102  RH  048%=      5-min Rain = 0
KCO1 111439Z 13006KT 22/10 A302 RMK A01 T02170101  RH  048%=      5-min Rain = 0
KCO1 111440Z 13006KT 22/10 A302 RMK A01 T02180102  RH  048%=      5-min Rain = 0
KCO1 111441Z 12007KT 22/10 A302 RMK A01 T02170102  RH  048%=      5-min Rain = 0
KCO1 111442Z 13007KT 22/10 A302 RMK A01 T02180102  RH  048%=      5-min Rain = 0
KCO1 111443Z 14007KT 22/10 A302 RMK A01 T02180102  RH  048%=      5-min Rain = 0
KCO1 111444Z 13006KT 22/10 A302 RMK A01 T02190102  RH  048%=      5-min Rain = 0
KCO1 111445Z 14006KT 22/10 A302 RMK A01 T02190102  RH  047%=      5-min Rain = 0
KCO1 111446Z 14005KT 22/10 A302 RMK A01 T02190102  RH  047%=      5-min Rain = 0
KCO1 111447Z 14006KT 22/10 A302 RMK A01 T02200103  RH  047%=      5-min Rain = 0
KCO1 111448Z 14007KT 22/10 A302 RMK A01 T02220103  RH  047%=      5-min Rain = 0
KCO1 111449Z 14006KT 22/10 A302 RMK A01 T02220102  RH  047%=      5-min Rain = 0
KCO1 111450Z 14005KT 22/10 A302 RMK A01 T02210103  RH  047%=      5-min Rain = 0
KCO1 111451Z 12007KT 22/10 A302 RMK A01 T02210102  RH  047%=      5-min Rain = 0
KCO1 111452Z 12007KT 22/10 A302 RMK A01 T02210102  RH  047%=      5-min Rain = 0
KCO1 111453Z 13005KT 22/10 A302 RMK A01 T02210102  RH  047%=      5-min Rain = 0
KCO1 111454Z 12005KT 22/10 A302 RMK A01 T02220102  RH  047%=      5-min Rain = 0
KCO1 111455Z 12005KT 22/10 A302 RMK A01 T02220102  RH  047%=      5-min Rain = 0
KCO1 111456Z 12005KT 22/10 A302 RMK A01 T02230103  RH  046%=      5-min Rain = 0
KCO1 111457Z 14005KT 22/10 A302 RMK A01 T02230102  RH  046%=      5-min Rain = 0
KCO1 111458Z 14006KT 22/10 A302 RMK A01 T02230103  RH  047%=      5-min Rain = 0
KCO1 111459Z 15006KT 22/10 A302 RMK A01 T02240104  RH  046%=      5-min Rain = 0
KCO1 111500Z 13006KT 23/10 A302 RMK A01 T02250103  RH  046%=      5-min Rain = 0
KCO1 111501Z 13005KT 23/10 A302 RMK A01 T02260104  RH  046%=      5-min Rain = 0
KCO1 111502Z 12005KT 23/10 A302 RMK A01 T02270104  RH  045%=      5-min Rain = 0
KCO1 111503Z 12006KT 23/10 A302 RMK A01 T02270103  RH  045%=      5-min Rain = 0
KCO1 111504Z 11006KT 23/10 A302 RMK A01 T02270104  RH  046%=      5-min Rain = 0
KCO1 111505Z 12005KT 23/10 A302 RMK A01 T02270103  RH  045%=      5-min Rain = 0
KCO1 111506Z 12006KT 23/10 A302 RMK A01 T02270104  RH  046%=      5-min Rain = 0
KCO1 111507Z 13006KT 23/11 A302 RMK A01 T02270105  RH  046%=      5-min Rain = 0
KCO1 111508Z 12006KT 23/10 A302 RMK A01 T02280104  RH  045%=      5-min Rain = 0
KCO1 111509Z 12005KT 23/10 A302 RMK A01 T02280104  RH  045%=      5-min Rain = 0
KCO1 111510Z 13005KT 23/11 A302 RMK A01 T02280105  RH  046%=      5-min Rain = 0
KCO1 111511Z 15005KT 23/11 A302 RMK A01 T02300106  RH  045%=      5-min Rain = 0
KCO1 111512Z 15006KT 23/11 A302 RMK A01 T02300105  RH  045%=      5-min Rain = 0
KCO1 111513Z 16007KT 23/11 A302 RMK A01 T02310105  RH  045%=      5-min Rain = 0
KCO1 111514Z 16007KT 23/11 A302 RMK A01 T02310105  RH  045%=      5-min Rain = 0
KCO1 111515Z 14006KT 23/11 A302 RMK A01 T02300105  RH  045%=      5-min Rain = 0
KCO1 111516Z 12005KT 23/11 A302 RMK A01 T02300105  RH  045%=      5-min Rain = 0
KCO1 111517Z 13005KT 23/11 A302 RMK A01 T02310105  RH  045%=      5-min Rain = 0
KCO1 111518Z 15006KT 23/11 A302 RMK A01 T02320105  RH  045%=      5-min Rain = 0
KCO1 111519Z 12006KT 23/11 A302 RMK A01 T02320106  RH  045%=      5-min Rain = 0
KCO1 111520Z 11005KT 23/11 A302 RMK A01 T02330106  RH  045%=      5-min Rain = 0
KCO1 111521Z 12007KT 24/11 A302 RMK A01 T02350107  RH  045%=      5-min Rain = 0
KCO1 111522Z 12005KT 24/11 A302 RMK A01 T02360107  RH  044%=      5-min Rain = 0
KCO1 111523Z 14004KT 24/11 A302 RMK A01 T02360105  RH  044%=      5-min Rain = 0
KCO1 111524Z 15002KT 24/11 A302 RMK A01 T02350105  RH  044%=      5-min Rain = 0
KCO1 111525Z 14005KT 23/11 A302 RMK A01 T02340106  RH  044%=      5-min Rain = 0
KCO1 111526Z 14005KT 23/11 A302 RMK A01 T02340106  RH  044%=      5-min Rain = 0
KCO1 111527Z 14004KT 24/11 A302 RMK A01 T02360107  RH  044%=      5-min Rain = 0
KCO1 111528Z 13006KT 24/11 A302 RMK A01 T02370106  RH  044%=      5-min Rain = 0
KCO1 111529Z 12006KT 24/11 A302 RMK A01 T02380107  RH  044%=      5-min Rain = 0
KCO1 111530Z 13004KT 24/11 A302 RMK A01 T02370107  RH  044%=      5-min Rain = 0
KCO1 111531Z 12002KT 24/11 A302 RMK A01 T02380107  RH  044%=      5-min Rain = 0
KCO1 111532Z 13005KT 24/11 A302 RMK A01 T02380108  RH  044%=      5-min Rain = 0
KCO1 111533Z 13005KT 24/11 A302 RMK A01 T02390106  RH  043%=      5-min Rain = 0
KCO1 111534Z 12004KT 24/11 A302 RMK A01 T02380105  RH  043%=      5-min Rain = 0
KCO1 111535Z 12003KT 24/11 A302 RMK A01 T02370106  RH  044%=      5-min Rain = 0
KCO1 111536Z 11005KT 24/11 A302 RMK A01 T02370106  RH  044%=      5-min Rain = 0
KCO1 111537Z 11005KT 24/11 A302 RMK A01 T02390108  RH  044%=      5-min Rain = 0
KCO1 111538Z 12004KT 24/11 A302 RMK A01 T02410109  RH  043%=      5-min Rain = 0
KCO1 111539Z 11005KT 24/11 A302 RMK A01 T02430109  RH  043%=      5-min Rain = 0
KCO1 111540Z 11004KT 24/11 A302 RMK A01 T02440107  RH  042%=      5-min Rain = 0
KCO1 111541Z 11004KT 24/11 A302 RMK A01 T02440106  RH  042%=      5-min Rain = 0
KCO1 111542Z 12006KT 25/11 A302 RMK A01 T02450107  RH  042%=      5-min Rain = 0
KCO1 111543Z 11005KT 25/11 A302 RMK A01 T02460106  RH  041%=      5-min Rain = 0
KCO1 111544Z 11005KT 25/11 A302 RMK A01 T02460106  RH  041%=      5-min Rain = 0
KCO1 111545Z 13004KT 25/11 A302 RMK A01 T02460106  RH  041%=      5-min Rain = 0
KCO1 111546Z 15003KT 25/11 A302 RMK A01 T02480109  RH  042%=      5-min Rain = 0
KCO1 111547Z 12002KT 25/11 A302 RMK A01 T02500108  RH  041%=      5-min Rain = 0
KCO1 111548Z 16004KT 25/11 A302 RMK A01 T02520106  RH  040%=      5-min Rain = 0
KCO1 111549Z 17005KT 25/10 A302 RMK A01 T02520103  RH  039%=      5-min Rain = 0
KCO1 111550Z 17004KT 25/10 A302 RMK A01 T02490101  RH  039%=      5-min Rain = 0
KCO1 111551Z 16005KT 25/11 A302 RMK A01 T02480106  RH  041%=      5-min Rain = 0
KCO1 111552Z 13006KT 25/11 A302 RMK A01 T02480105  RH  040%=      5-min Rain = 0
KCO1 111553Z 11007KT 25/11 A302 RMK A01 T02480105  RH  040%=      5-min Rain = 0
KCO1 111554Z 12005KT 25/11 A302 RMK A01 T02490105  RH  040%=      5-min Rain = 0
KCO1 111555Z 11005KT 25/11 A302 RMK A01 T02510105  RH  040%=      5-min Rain = 0
KCO1 111556Z 11004KT 25/11 A302 RMK A01 T02510105  RH  040%=      5-min Rain = 0
KCO1 111557Z 11004KT 25/11 A302 RMK A01 T02510105  RH  040%=      5-min Rain = 0
KCO1 111558Z 11003KT 25/11 A302 RMK A01 T02510105  RH  040%=      5-min Rain = 0
KCO1 111559Z 12007KT 25/11 A302 RMK A01 T02520106  RH  040%=      5-min Rain = 0
KCO1 111600Z 15006KT 25/11 A302 RMK A01 T02530105  RH  039%=      5-min Rain = 0
KCO1 111601Z 15003KT 25/10 A302 RMK A01 T02510104  RH  040%=      5-min Rain = 0
KCO1 111602Z 14002KT 25/11 A302 RMK A01 T02510105  RH  040%=      5-min Rain = 0
KCO1 111603Z 13004KT 25/11 A302 RMK A01 T02520105  RH  040%=      5-min Rain = 0
KCO1 111604Z 15006KT 25/11 A302 RMK A01 T02540107  RH  040%=      5-min Rain = 0
KCO1 111605Z 14006KT 26/11 A302 RMK A01 T02550105  RH  039%=      5-min Rain = 0
KCO1 111606Z 12005KT 25/10 A3021 RMK A01 T02540104  RH  039%=      5-min Rain = 0
KCO1 111607Z 10003KT 25/10 A3021 RMK A01 T02540104  RH  039%=      5-min Rain = 0
KCO1 111608Z 10002KT 25/10 A3021 RMK A01 T02540104  RH  039%=      5-min Rain = 0
KCO1 111609Z 16003KT 26/11 A3021 RMK A01 T02550105  RH  039%=      5-min Rain = 0
KCO1 111610Z 18003KT 26/11 A3021 RMK A01 T02570105  RH  039%=      5-min Rain = 0
KCO1 111611Z 15004KT 26/11 A3021 RMK A01 T02580107  RH  039%=      5-min Rain = 0
KCO1 111612Z 12003KT 26/11 A302 RMK A01 T02590107  RH  038%=      5-min Rain = 0
KCO1 111613Z 13005KT 26/11 A302 RMK A01 T02620108  RH  038%=      5-min Rain = 0
KCO1 111614Z 14004KT 26/10 A302 RMK A01 T02630104  RH  037%=      5-min Rain = 0
KCO1 111615Z 14003KT 26/10 A302 RMK A01 T02620104  RH  037%=      5-min Rain = 0
KCO1 111616Z 10004KT 26/11 A302 RMK A01 T02630105  RH  037%=      5-min Rain = 0
KCO1 111617Z 13004KT 26/10 A302 RMK A01 T02630104  RH  037%=      5-min Rain = 0
KCO1 111618Z 16005KT 26/11 A302 RMK A01 T02620105  RH  037%=      5-min Rain = 0
KCO1 111619Z 17004KT 26/10 A302 RMK A01 T02620104  RH  037%=      5-min Rain = 0
KCO1 111620Z 16002KT 26/10 A302 RMK A01 T02600102  RH  037%=      5-min Rain = 0
KCO1 111621Z 17001KT 26/10 A302 RMK A01 T02580102  RH  037%=      5-min Rain = 0
KCO1 111622Z 10004KT 26/10 A3021 RMK A01 T02580103  RH  038%=      5-min Rain = 0
KCO1 111623Z 12004KT 26/10 A302 RMK A01 T02600104  RH  037%=      5-min Rain = 0
KCO1 111624Z 11004KT 26/10 A302 RMK A01 T02600104  RH  037%=      5-min Rain = 0
KCO1 111625Z 11002KT 26/10 A302 RMK A01 T02610103  RH  037%=      5-min Rain = 0
KCO1 111626Z 13003KT 26/10 A302 RMK A01 T02610103  RH  037%=      5-min Rain = 0
KCO1 111627Z 10002KT 26/10 A302 RMK A01 T02610103  RH  037%=      5-min Rain = 0
KCO1 111628Z 08000KT 26/10 A302 RMK A01 T02620104  RH  037%=      5-min Rain = 0
KCO1 111629Z 07000KT 26/10 A302 RMK A01 T02620103  RH  037%=      5-min Rain = 0
KCO1 111630Z 10004KT 26/11 A302 RMK A01 T02640105  RH  037%=      5-min Rain = 0
KCO1 111631Z 10004KT 27/11 A302 RMK A01 T02670106  RH  036%=      5-min Rain = 0
KCO1 111632Z 10002KT 27/11 A302 RMK A01 T02690105  RH  036%=      5-min Rain = 0
KCO1 111633Z 12003KT 27/11 A302 RMK A01 T02710105  RH  035%=      5-min Rain = 0
KCO1 111634Z 18003KT 27/11 A302 RMK A01 T02710105  RH  035%=      5-min Rain = 0
KCO1 111635Z 16003KT 27/11 A302 RMK A01 T02720105  RH  035%=      5-min Rain = 0
KCO1 111636Z 13003KT 27/10 A302 RMK A01 T02710104  RH  035%=      5-min Rain = 0
KCO1 111637Z 13002KT 27/10 A302 RMK A01 T02700104  RH  035%=      5-min Rain = 0
KCO1 111638Z 11002KT 27/10 A302 RMK A01 T02700103  RH  035%=      5-min Rain = 0
KCO1 111639Z 13003KT 27/10 A302 RMK A01 T02720104  RH  035%=      5-min Rain = 0
KCO1 111640Z 18002KT 27/11 A302 RMK A01 T02720105  RH  035%=      5-min Rain = 0
KCO1 111641Z 16003KT 27/11 A302 RMK A01 T02730106  RH  035%=      5-min Rain = 0
KCO1 111642Z 16002KT 27/11 A302 RMK A01 T02730105  RH  035%=      5-min Rain = 0
KCO1 111643Z 10003KT 27/11 A302 RMK A01 T02720105  RH  035%=      5-min Rain = 0
KCO1 111644Z 10005KT 27/11 A302 RMK A01 T02740105  RH  035%=      5-min Rain = 0
KCO1 111645Z 10003KT 28/10 A302 RMK A01 T02750103  RH  034%=      5-min Rain = 0
KCO1 111646Z 11001KT 28/10 A302 RMK A01 T02750102  RH  034%=      5-min Rain = 0
KCO1 111647Z 08001KT 27/10 A302 RMK A01 T02730101  RH  034%=      5-min Rain = 0
KCO1 111648Z 12002KT 27/10 A302 RMK A01 T02720102  RH  034%=      5-min Rain = 0
KCO1 111649Z 16004KT 27/10 A302 RMK A01 T02730102  RH  034%=      5-min Rain = 0
KCO1 111650Z 18003KT 27/10 A302 RMK A01 T02730101  RH  034%=      5-min Rain = 0
KCO1 111651Z 18004KT 27/10 A302 RMK A01 T02720102  RH  034%=      5-min Rain = 0
KCO1 111652Z 16003KT 27/10 A302 RMK A01 T02730103  RH  034%=      5-min Rain = 0
KCO1 111653Z 16003KT 28/10 A302 RMK A01 T02750102  RH  034%=      5-min Rain = 0
KCO1 111654Z 19002KT 28/10 A302 RMK A01 T02750102  RH  034%=      5-min Rain = 0
KCO1 111655Z 20002KT 28/10 A302 RMK A01 T02750103  RH  034%=      5-min Rain = 0
KCO1 111656Z 34000KT 28/11 A302 RMK A01 T02750105  RH  035%=      5-min Rain = 0
KCO1 111657Z 06002KT 27/11 A302 RMK A01 T02740105  RH  035%=      5-min Rain = 0
KCO1 111658Z 05003KT 28/11 A302 RMK A01 T02760106  RH  035%=      5-min Rain = 0
KCO1 111659Z 05003KT 28/10 A302 RMK A01 T02790104  RH  034%=      5-min Rain = 0
KCO1 111700Z 07002KT 28/10 A302 RMK A01 T02780104  RH  034%=      5-min Rain = 0
KCO1 111701Z 09003KT 28/11 A302 RMK A01 T02780106  RH  034%=      5-min Rain = 0
KCO1 111702Z 12003KT 28/10 A302 RMK A01 T02790104  RH  034%=      5-min Rain = 0
KCO1 111703Z 12003KT 28/10 A302 RMK A01 T02790103  RH  033%=      5-min Rain = 0
KCO1 111704Z 11001KT 28/11 A302 RMK A01 T02800105  RH  034%=      5-min Rain = 0
KCO1 111705Z 18002KT 28/10 A302 RMK A01 T02810103  RH  033%=      5-min Rain = 0
KCO1 111706Z 08002KT 28/10 A302 RMK A01 T02810102  RH  033%=      5-min Rain = 0
KCO1 111707Z 06003KT 28/10 A302 RMK A01 T02810103  RH  033%=      5-min Rain = 0
KCO1 111708Z 07003KT 28/10 A302 RMK A01 T02820102  RH  033%=      5-min Rain = 0
KCO1 111709Z 07003KT 28/10 A302 RMK A01 T02840102  RH  032%=      5-min Rain = 0
KCO1 111710Z 11004KT 29/10 A302 RMK A01 T02860103  RH  032%=      5-min Rain = 0
KCO1 111711Z 07004KT 29/10 A302 RMK A01 T02860102  RH  032%=      5-min Rain = 0
KCO1 111712Z 06004KT 29/10 A302 RMK A01 T02850101  RH  032%=      5-min Rain = 0
KCO1 111713Z 09003KT 29/10 A302 RMK A01 T02850100  RH  032%=      5-min Rain = 0
KCO1 111714Z 11004KT 29/10 A302 RMK A01 T02870101  RH  031%=      5-min Rain = 0
KCO1 111715Z 10003KT 29/10 A302 RMK A01 T02870096  RH  030%=      5-min Rain = 0
KCO1 111716Z 11001KT 29/09 A302 RMK A01 T02850093  RH  030%=      5-min Rain = 0
KCO1 111717Z 11002KT 29/10 A302 RMK A01 T02850095  RH  031%=      5-min Rain = 0
KCO1 111718Z 15002KT 29/09 A302 RMK A01 T02860093  RH  030%=      5-min Rain = 0
KCO1 111719Z 16002KT 29/09 A3019 RMK A01 T02880091  RH  029%=      5-min Rain = 0
KCO1 111720Z 15002KT 29/09 A3019 RMK A01 T02880092  RH  029%=      5-min Rain = 0
KCO1 111721Z 19002KT 29/09 A3019 RMK A01 T02870094  RH  030%=      5-min Rain = 0
KCO1 111722Z 22002KT 29/09 A3019 RMK A01 T02850094  RH  030%=      5-min Rain = 0
KCO1 111723Z 22001KT 28/10 A3019 RMK A01 T02830095  RH  031%=      5-min Rain = 0
KCO1 111724Z 21001KT 28/10 A3019 RMK A01 T02830095  RH  031%=      5-min Rain = 0
KCO1 111725Z 16002KT 28/10 A3019 RMK A01 T02840097  RH  031%=      5-min Rain = 0
KCO1 111726Z 16003KT 29/10 A3019 RMK A01 T02870097  RH  030%=      5-min Rain = 0
KCO1 111727Z 15002KT 29/10 A3019 RMK A01 T02890097  RH  030%=      5-min Rain = 0
KCO1 111728Z 11003KT 29/10 A3019 RMK A01 T02910098  RH  030%=      5-min Rain = 0
KCO1 111729Z 10004KT 29/10 A3019 RMK A01 T02920095  RH  029%=      5-min Rain = 0
KCO1 111730Z 09003KT 29/09 A3019 RMK A01 T02910094  RH  029%=      5-min Rain = 0
KCO1 111731Z 06002KT 29/09 A3019 RMK A01 T02900094  RH  029%=      5-min Rain = 0
KCO1 111732Z 04002KT 29/09 A3019 RMK A01 T02900093  RH  029%=      5-min Rain = 0
KCO1 111733Z 02002KT 29/09 A3019 RMK A01 T02900090  RH  029%=      5-min Rain = 0
KCO1 111734Z 36001KT 29/09 A3019 RMK A01 T02880091  RH  029%=      5-min Rain = 0
KCO1 111735Z 03001KT 29/09 A3019 RMK A01 T02870094  RH  030%=      5-min Rain = 0
KCO1 111736Z 09002KT 29/10 A3019 RMK A01 T02890096  RH  030%=      5-min Rain = 0
KCO1 111737Z 14003KT 29/10 A3019 RMK A01 T02920097  RH  030%=      5-min Rain = 0
KCO1 111738Z 13005KT 29/10 A3019 RMK A01 T02930097  RH  029%=      5-min Rain = 0
KCO1 111739Z 08003KT 29/10 A3019 RMK A01 T02930098  RH  030%=      5-min Rain = 0
KCO1 111740Z 06003KT 29/10 A3019 RMK A01 T02910095  RH  029%=      5-min Rain = 0
KCO1 111741Z 07004KT 29/10 A3019 RMK A01 T02890096  RH  030%=      5-min Rain = 0
KCO1 111742Z 06001KT 29/10 A3019 RMK A01 T02890096  RH  030%=      5-min Rain = 0
KCO1 111743Z 33001KT 29/10 A3019 RMK A01 T02890096  RH  030%=      5-min Rain = 0
KCO1 111744Z 16002KT 29/10 A3019 RMK A01 T02910098  RH  030%=      5-min Rain = 0
KCO1 111745Z 19001KT 29/10 A3019 RMK A01 T02940099  RH  030%=      5-min Rain = 0
KCO1 111746Z 16002KT 30/10 A3019 RMK A01 T02970098  RH  029%=      5-min Rain = 0
KCO1 111747Z 14002KT 30/10 A3019 RMK A01 T02980099  RH  029%=      5-min Rain = 0
KCO1 111748Z 14003KT 30/10 A3019 RMK A01 T02990099  RH  029%=      5-min Rain = 0
KCO1 111749Z 14001KT 30/10 A3019 RMK A01 T02990097  RH  029%=      5-min Rain = 0
KCO1 111750Z 12000KT 30/10 A3019 RMK A01 T02980097  RH  029%=      5-min Rain = 0
KCO1 111751Z 03003KT 30/10 A3019 RMK A01 T02980098  RH  029%=      5-min Rain = 0
KCO1 111752Z 00002KT 30/09 A3019 RMK A01 T02980094  RH  028%=      5-min Rain = 0
KCO1 111753Z 00002KT 30/09 A3019 RMK A01 T02980093  RH  028%=      5-min Rain = 0
KCO1 111754Z 34003KT 30/09 A3019 RMK A01 T02980094  RH  028%=      5-min Rain = 0
KCO1 111755Z 36001KT 30/09 A3019 RMK A01 T02960093  RH  028%=      5-min Rain = 0
KCO1 111756Z 28000KT 30/09 A3019 RMK A01 T02950094  RH  028%=      5-min Rain = 0
KCO1 111757Z 04002KT 30/09 A3019 RMK A01 T02960094  RH  029%=      5-min Rain = 0
KCO1 111758Z 03001KT 30/10 A3019 RMK A01 T02970095  RH  028%=      5-min Rain = 0
KCO1 111759Z 04004KT 30/10 A3019 RMK A01 T02990096  RH  028%=      5-min Rain = 0
KCO1 111800Z 04003KT 30/10 A3019 RMK A01 T03010095  RH  028%=      5-min Rain = 0
KCO1 111801Z 03005KT 30/10 A3019 RMK A01 T03020096  RH  028%=      5-min Rain = 0
KCO1 111802Z 03006KT 30/10 A3019 RMK A01 T03010095  RH  028%=      5-min Rain = 0
KCO1 111803Z 03005KT 30/10 A3019 RMK A01 T02990095  RH  028%=      5-min Rain = 0
KCO1 111804Z 03004KT 30/10 A3019 RMK A01 T02990095  RH  028%=      5-min Rain = 0
KCO1 111805Z 06004KT 30/10 A3019 RMK A01 T03010099  RH  028%=      5-min Rain = 0
KCO1 111806Z 07007KT 31/10 A3019 RMK A01 T03050098  RH  028%=      5-min Rain = 0
KCO1 111807Z 07007KT 30/10 A3019 RMK A01 T03040095  RH  027%=      5-min Rain = 0
KCO1 111808Z 06005KT 30/10 A3019 RMK A01 T03020095  RH  028%=      5-min Rain = 0
KCO1 111809Z 07004KT 30/10 A3019 RMK A01 T03010096  RH  028%=      5-min Rain = 0
KCO1 111810Z 10005KT 30/10 A3019 RMK A01 T03040096  RH  027%=      5-min Rain = 0
KCO1 111811Z 10005KT 31/10 A3018 RMK A01 T03050096  RH  027%=      5-min Rain = 0
KCO1 111812Z 10006KT 31/10 A3018 RMK A01 T03060096  RH  027%=      5-min Rain = 0
KCO1 111813Z 12004KT 31/09 A3018 RMK A01 T03050093  RH  027%=      5-min Rain = 0
KCO1 111814Z 13003KT 30/09 A3018 RMK A01 T03000093  RH  028%=      5-min Rain = 0
KCO1 111815Z 12005KT 30/09 A3018 RMK A01 T02990094  RH  028%=      5-min Rain = 0
KCO1 111816Z 10003KT 30/09 A3018 RMK A01 T02980092  RH  028%=      5-min Rain = 0
KCO1 111817Z 14001KT 30/09 A3018 RMK A01 T02960091  RH  028%=      5-min Rain = 0
KCO1 111818Z 08001KT 30/09 A3018 RMK A01 T02950091  RH  028%=      5-min Rain = 0
KCO1 111819Z 19003KT 30/09 A3018 RMK A01 T02950093  RH  028%=      5-min Rain = 0
KCO1 111820Z 20003KT 30/09 A3018 RMK A01 T02960092  RH  028%=      5-min Rain = 0
KCO1 111821Z 08004KT 30/09 A3018 RMK A01 T02970093  RH  028%=      5-min Rain = 0
KCO1 111822Z 09006KT 30/09 A3018 RMK A01 T02980093  RH  028%=      5-min Rain = 0
KCO1 111823Z 08005KT 30/10 A3018 RMK A01 T03040096  RH  027%=      5-min Rain = 0
KCO1 111824Z 09008KT 31/09 A3018 RMK A01 T03090093  RH  026%=      5-min Rain = 0
KCO1 111825Z 08005KT 31/09 A3018 RMK A01 T03050093  RH  027%=      5-min Rain = 0
KCO1 111826Z 08006KT 31/09 A3018 RMK A01 T03050092  RH  027%=      5-min Rain = 0
KCO1 111827Z 06005KT 30/09 A3018 RMK A01 T03040092  RH  027%=      5-min Rain = 0
KCO1 111828Z 07004KT 30/09 A3018 RMK A01 T03010090  RH  027%=      5-min Rain = 0
KCO1 111829Z 08005KT 30/09 A3018 RMK A01 T03000091  RH  027%=      5-min Rain = 0
KCO1 111830Z 12007KT 30/09 A3018 RMK A01 T03000092  RH  027%=      5-min Rain = 0
KCO1 111831Z 10009KT 30/09 A3017 RMK A01 T03010093  RH  027%=      5-min Rain = 0
KCO1 111832Z 10003KT 30/09 A3018 RMK A01 T03000091  RH  027%=      5-min Rain = 0
KCO1 111833Z 10005KT 30/09 A3017 RMK A01 T02990091  RH  027%=      5-min Rain = 0
KCO1 111834Z 10004KT 30/09 A3017 RMK A01 T02990091  RH  027%=      5-min Rain = 0
KCO1 111835Z 11004KT 30/09 A3017 RMK A01 T03000091  RH  027%=      5-min Rain = 0
KCO1 111836Z 12002KT 30/09 A3017 RMK A01 T03000091  RH  027%=      5-min Rain = 0
KCO1 111837Z 14001KT 30/09 A3017 RMK A01 T03000091  RH  027%=      5-min Rain = 0
KCO1 111838Z 06000KT 30/09 A3017 RMK A01 T03010090  RH  027%=      5-min Rain = 0
KCO1 111839Z 05001KT 30/09 A3017 RMK A01 T03030091  RH  027%=      5-min Rain = 0
KCO1 111840Z 03003KT 31/09 A3017 RMK A01 T03060092  RH  027%=      5-min Rain = 0
KCO1 111841Z 05008KT 31/09 A3017 RMK A01 T03060090  RH  026%=      5-min Rain = 0
KCO1 111842Z 05007KT 31/09 A3017 RMK A01 T03060090  RH  026%=      5-min Rain = 0
KCO1 111843Z 06009KT 31/09 A3017 RMK A01 T03060090  RH  026%=      5-min Rain = 0
KCO1 111844Z 05008KT 31/09 A3017 RMK A01 T03070092  RH  026%=      5-min Rain = 0
KCO1 111845Z 07008KT 31/09 A3017 RMK A01 T03080091  RH  026%=      5-min Rain = 0
KCO1 111846Z 07006KT 31/09 A3017 RMK A01 T03070091  RH  026%=      5-min Rain = 0
KCO1 111847Z 08005KT 31/09 A3017 RMK A01 T03060091  RH  026%=      5-min Rain = 0
KCO1 111848Z 08004KT 30/09 A3017 RMK A01 T03030088  RH  026%=      5-min Rain = 0
KCO1 111849Z 10002KT 30/09 A3017 RMK A01 T03000089  RH  027%=      5-min Rain = 0
KCO1 111850Z 14001KT 30/09 A3017 RMK A01 T03020091  RH  027%=      5-min Rain = 0
KCO1 111851Z 02002KT 31/09 A3017 RMK A01 T03050092  RH  027%=      5-min Rain = 0
KCO1 111852Z 09005KT 31/09 A3017 RMK A01 T03080093  RH  026%=      5-min Rain = 0
KCO1 111853Z 09006KT 31/09 A3017 RMK A01 T03090092  RH  026%=      5-min Rain = 0
KCO1 111854Z 11005KT 31/09 A3017 RMK A01 T03060091  RH  026%=      5-min Rain = 0
KCO1 111855Z 13005KT 31/09 A3016 RMK A01 T03060092  RH  027%=      5-min Rain = 0
KCO1 111856Z 15004KT 31/09 A3016 RMK A01 T03050092  RH  027%=      5-min Rain = 0
KCO1 111857Z 16004KT 30/09 A3016 RMK A01 T03040093  RH  027%=      5-min Rain = 0
KCO1 111858Z 15003KT 30/09 A3016 RMK A01 T03040092  RH  027%=      5-min Rain = 0
KCO1 111859Z 14003KT 30/09 A3016 RMK A01 T03040093  RH  027%=      5-min Rain = 0
KCO1 111900Z 09006KT 30/09 A3016 RMK A01 T03040093  RH  027%=      5-min Rain = 0
KCO1 111901Z 04007KT 31/09 A3016 RMK A01 T03070092  RH  026%=      5-min Rain = 0
KCO1 111902Z 04011KT 31/09 A3016 RMK A01 T03120092  RH  026%=      5-min Rain = 0
KCO1 111903Z 03010KT 31/09 A3016 RMK A01 T03130089  RH  025%=      5-min Rain = 0
KCO1 111904Z 07011KT 31/09 A3016 RMK A01 T03110090  RH  025%=      5-min Rain = 0
KCO1 111905Z 05009KT 31/09 A3016 RMK A01 T03110088  RH  025%=      5-min Rain = 0
KCO1 111906Z 06010KT 31/09 A3016 RMK A01 T03070087  RH  026%=      5-min Rain = 0
KCO1 111907Z 05009KT 31/09 A3016 RMK A01 T03070090  RH  026%=      5-min Rain = 0
KCO1 111908Z 05011KT 31/09 A3016 RMK A01 T03090091  RH  026%=      5-min Rain = 0
KCO1 111909Z 05010KT 31/09 A3016 RMK A01 T03100088  RH  025%=      5-min Rain = 0
KCO1 111910Z 03007KT 31/09 A3016 RMK A01 T03090089  RH  026%=      5-min Rain = 0
KCO1 111911Z 04009KT 31/09 A3016 RMK A01 T03060090  RH  026%=      5-min Rain = 0
KCO1 111912Z 04009KT 31/09 A3016 RMK A01 T03070092  RH  026%=      5-min Rain = 0
KCO1 111913Z 04009KT 31/09 A3016 RMK A01 T03100092  RH  026%=      5-min Rain = 0
KCO1 111914Z 05006KT 31/09 A3016 RMK A01 T03090090  RH  026%=      5-min Rain = 0
KCO1 111915Z 05005KT 31/09 A3016 RMK A01 T03070091  RH  026%=      5-min Rain = 0
KCO1 111916Z 04007KT 31/09 A3016 RMK A01 T03060092  RH  026%=      5-min Rain = 0
KCO1 111917Z 06007KT 31/09 A3016 RMK A01 T03090092  RH  026%=      5-min Rain = 0
KCO1 111918Z 07005KT 31/09 A3016 RMK A01 T03090091  RH  026%=      5-min Rain = 0
KCO1 111919Z 06005KT 31/09 A3016 RMK A01 T03090091  RH  026%=      5-min Rain = 0
KCO1 111920Z 03002KT 31/09 A3015 RMK A01 T03060088  RH  026%=      5-min Rain = 0
KCO1 111921Z 08005KT 31/09 A3015 RMK A01 T03050090  RH  026%=      5-min Rain = 0
KCO1 111922Z 12002KT 31/09 A3015 RMK A01 T03060088  RH  026%=      5-min Rain = 0
KCO1 111923Z 11005KT 31/09 A3015 RMK A01 T03050089  RH  026%=      5-min Rain = 0
KCO1 111924Z 11001KT 31/09 A3015 RMK A01 T03050088  RH  026%=      5-min Rain = 0
KCO1 111925Z 26001KT 31/09 A3015 RMK A01 T03060090  RH  026%=      5-min Rain = 0
KCO1 111926Z 23001KT 31/09 A3015 RMK A01 T03090089  RH  026%=      5-min Rain = 0
KCO1 111927Z 22002KT 31/09 A3015 RMK A01 T03100088  RH  025%=      5-min Rain = 0
KCO1 111928Z 22002KT 31/09 A3015 RMK A01 T03080088  RH  025%=      5-min Rain = 0
KCO1 111929Z 14002KT 31/09 A3015 RMK A01 T03080089  RH  026%=      5-min Rain = 0
KCO1 111930Z 07006KT 31/09 A3015 RMK A01 T03100090  RH  025%=      5-min Rain = 0
KCO1 111931Z 06008KT 31/09 A3015 RMK A01 T03130089  RH  025%=      5-min Rain = 0
KCO1 111932Z 07006KT 31/09 A3015 RMK A01 T03140087  RH  024%=      5-min Rain = 0
KCO1 111933Z 09006KT 31/09 A3015 RMK A01 T03140086  RH  024%=      5-min Rain = 0
KCO1 111934Z 06008KT 31/09 A3015 RMK A01 T03130087  RH  025%=      5-min Rain = 0
KCO1 111935Z 08006KT 31/09 A3015 RMK A01 T03140086  RH  024%=      5-min Rain = 0
KCO1 111936Z 09004KT 31/08 A3015 RMK A01 T03130083  RH  024%=      5-min Rain = 0
KCO1 111937Z 08002KT 31/08 A3014 RMK A01 T03120082  RH  024%=      5-min Rain = 0
KCO1 111938Z 05002KT 31/08 A3014 RMK A01 T03100083  RH  024%=      5-min Rain = 0
KCO1 111939Z 09006G11KT 31/09 A3014 RMK A01 T03130085  RH  024%=      5-min Rain = 0
KCO1 111940Z 06008KT 32/09 A3014 RMK A01 T03160086  RH  024%=      5-min Rain = 0
KCO1 111941Z 06010KT 32/09 A3014 RMK A01 T03190087  RH  024%=      5-min Rain = 0
KCO1 111942Z 05009KT 32/09 A3014 RMK A01 T03200085  RH  023%=      5-min Rain = 0
KCO1 111943Z 05008KT 32/09 A3014 RMK A01 T03180085  RH  024%=      5-min Rain = 0
KCO1 111944Z 08010KT 32/09 A3014 RMK A01 T03180086  RH  024%=      5-min Rain = 0
KCO1 111945Z 08008KT 32/09 A3014 RMK A01 T03190086  RH  024%=      5-min Rain = 0
KCO1 111946Z 08007KT 32/09 A3014 RMK A01 T03180085  RH  024%=      5-min Rain = 0
KCO1 111947Z 07004KT 32/09 A3014 RMK A01 T03150085  RH  024%=      5-min Rain = 0
KCO1 111948Z 05004KT 32/09 A3014 RMK A01 T03150087  RH  024%=      5-min Rain = 0
KCO1 111949Z 07006KT 32/09 A3014 RMK A01 T03170086  RH  024%=      5-min Rain = 0
KCO1 111950Z 06009KT 32/09 A3014 RMK A01 T03170087  RH  024%=      5-min Rain = 0
KCO1 111951Z 05009KT 32/09 A3014 RMK A01 T03200087  RH  024%=      5-min Rain = 0
KCO1 111952Z 06008KT 32/09 A3014 RMK A01 T03190086  RH  024%=      5-min Rain = 0
KCO1 111953Z 08008KT 32/09 A3014 RMK A01 T03190088  RH  024%=      5-min Rain = 0
KCO1 111954Z 06008KT 32/09 A3014 RMK A01 T03210086  RH  023%=      5-min Rain = 0
KCO1 111955Z 08006KT 32/08 A3014 RMK A01 T03170084  RH  024%=      5-min Rain = 0
KCO1 111956Z 07005KT 32/09 A3014 RMK A01 T03150085  RH  024%=      5-min Rain = 0
KCO1 111957Z 09006KT 31/09 A3014 RMK A01 T03140086  RH  024%=      5-min Rain = 0
KCO1 111958Z 07006KT 31/09 A3013 RMK A01 T03140086  RH  024%=      5-min Rain = 0
KCO1 111959Z 06007KT 32/09 A3013 RMK A01 T03150086  RH  024%=      5-min Rain = 0
KCO1 112000Z 09007KT 32/09 A3013 RMK A01 T03160086  RH  024%=      5-min Rain = 0
KCO1 112001Z 10004KT 32/09 A3013 RMK A01 T03150085  RH  024%=      5-min Rain = 0
KCO1 112002Z 11004KT 31/08 A3013 RMK A01 T03140084  RH  024%=      5-min Rain = 0
KCO1 112003Z 09006KT 31/09 A3013 RMK A01 T03130085  RH  024%=      5-min Rain = 0
KCO1 112004Z 09005G10KT 31/09 A3013 RMK A01 T03120085  RH  024%=      5-min Rain = 0
KCO1 112005Z 07005KT 31/09 A3013 RMK A01 T03100085  RH  025%=      5-min Rain = 0
KCO1 112006Z 05004KT 31/09 A3013 RMK A01 T03100085  RH  025%=      5-min Rain = 0
KCO1 112007Z 36002KT 31/08 A3013 RMK A01 T03110084  RH  024%=      5-min Rain = 0
KCO1 112008Z 35001KT 31/09 A3013 RMK A01 T03100086  RH  025%=      5-min Rain = 0
KCO1 112009Z 03002KT 31/09 A3013 RMK A01 T03120086  RH  025%=      5-min Rain = 0
KCO1 112010Z 02003KT 31/09 A3013 RMK A01 T03140086  RH  024%=      5-min Rain = 0
KCO1 112011Z 02005KT 32/09 A3013 RMK A01 T03150085  RH  024%=      5-min Rain = 0
KCO1 112012Z 04007KT 32/08 A3013 RMK A01 T03160083  RH  024%=      5-min Rain = 0
KCO1 112013Z 05006KT 32/08 A3012 RMK A01 T03170083  RH  024%=      5-min Rain = 0
KCO1 112014Z 06005KT 32/08 A3012 RMK A01 T03180084  RH  023%=      5-min Rain = 0
KCO1 112015Z 09004KT 32/08 A3012 RMK A01 T03180083  RH  023%=      5-min Rain = 0
KCO1 112016Z 09009KT 32/08 A3012 RMK A01 T03180084  RH  024%=      5-min Rain = 0
KCO1 112017Z 10009KT 32/08 A3012 RMK A01 T03190084  RH  023%=      5-min Rain = 0
KCO1 112018Z 11007KT 32/08 A3012 RMK A01 T03180084  RH  023%=      5-min Rain = 0
KCO1 112019Z 07011KT 32/08 A3012 RMK A01 T03160084  RH  024%=      5-min Rain = 0
KCO1 112020Z 03008KT 32/08 A3012 RMK A01 T03190083  RH  023%=      5-min Rain = 0
KCO1 112021Z 01006KT 32/08 A3012 RMK A01 T03190082  RH  023%=      5-min Rain = 0
KCO1 112022Z 01004KT 32/08 A3012 RMK A01 T03170081  RH  023%=      5-min Rain = 0
KCO1 112023Z 06006KT 32/08 A3012 RMK A01 T03180084  RH  023%=      5-min Rain = 0
KCO1 112024Z 05008KT 32/09 A3012 RMK A01 T03220087  RH  023%=      5-min Rain = 0
KCO1 112025Z 05009KT 33/08 A3012 RMK A01 T03270084  RH  022%=      5-min Rain = 0
KCO1 112026Z 04007KT 33/08 A3012 RMK A01 T03250082  RH  022%=      5-min Rain = 0
KCO1 112027Z 04010KT 33/08 A3012 RMK A01 T03250082  RH  022%=      5-min Rain = 0
KCO1 112028Z 05007KT 32/08 A3012 RMK A01 T03220080  RH  022%=      5-min Rain = 0
KCO1 112029Z 04010KT 32/08 A3012 RMK A01 T03200080  RH  023%=      5-min Rain = 0
KCO1 112030Z 04010KT 32/08 A3012 RMK A01 T03200081  RH  023%=      5-min Rain = 0
KCO1 112031Z 04008KT 32/08 A3012 RMK A01 T03190080  RH  023%=      5-min Rain = 0
KCO1 112032Z 04008KT 32/08 A3012 RMK A01 T03160080  RH  023%=      5-min Rain = 0
KCO1 112033Z 03005KT 32/08 A3012 RMK A01 T03150080  RH  023%=      5-min Rain = 0
KCO1 112034Z 02001KT 31/08 A3011 RMK A01 T03140078  RH  023%=      5-min Rain = 0
KCO1 112035Z 36004KT 32/08 A3011 RMK A01 T03160080  RH  023%=      5-min Rain = 0
KCO1 112036Z 04005KT 32/08 A3011 RMK A01 T03180081  RH  023%=      5-min Rain = 0
KCO1 112037Z 04003KT 32/08 A3012 RMK A01 T03220082  RH  023%=      5-min Rain = 0
KCO1 112038Z 01003KT 33/08 A3011 RMK A01 T03250083  RH  022%=      5-min Rain = 0
KCO1 112039Z 06010KT 32/08 A3012 RMK A01 T03240082  RH  022%=      5-min Rain = 0
KCO1 112040Z 07007KT 32/08 A3012 RMK A01 T03220083  RH  023%=      5-min Rain = 0
KCO1 112041Z 04005KT 32/08 A3011 RMK A01 T03190081  RH  023%=      5-min Rain = 0
KCO1 112042Z 07007KT 32/08 A3011 RMK A01 T03160081  RH  023%=      5-min Rain = 0
KCO1 112043Z 10005KT 32/08 A3011 RMK A01 T03150083  RH  024%=      5-min Rain = 0
KCO1 112044Z 09003KT 32/08 A3011 RMK A01 T03150083  RH  024%=      5-min Rain = 0
KCO1 112045Z 07004KT 32/08 A3011 RMK A01 T03170084  RH  024%=      5-min Rain = 0
KCO1 112046Z 08004KT 32/09 A3011 RMK A01 T03210086  RH  023%=      5-min Rain = 0
KCO1 112047Z 04007KT 32/09 A3011 RMK A01 T03230086  RH  023%=      5-min Rain = 0
KCO1 112048Z 05006KT 32/08 A3011 RMK A01 T03230084  RH  023%=      5-min Rain = 0
KCO1 112049Z 07005KT 32/08 A3011 RMK A01 T03190083  RH  023%=      5-min Rain = 0
KCO1 112050Z 07003KT 32/08 A3011 RMK A01 T03180084  RH  023%=      5-min Rain = 0
KCO1 112051Z 13001KT 32/08 A3011 RMK A01 T03180084  RH  023%=      5-min Rain = 0
KCO1 112052Z 09005KT 32/09 A3011 RMK A01 T03190086  RH  024%=      5-min Rain = 0
KCO1 112053Z 08006KT 32/09 A3011 RMK A01 T03240088  RH  023%=      5-min Rain = 0
KCO1 112054Z 08007KT 33/09 A3011 RMK A01 T03270087  RH  023%=      5-min Rain = 0
KCO1 112055Z 08003KT 33/09 A3011 RMK A01 T03270087  RH  023%=      5-min Rain = 0
KCO1 112056Z 07006KT 33/09 A3011 RMK A01 T03270086  RH  023%=      5-min Rain = 0
KCO1 112057Z 03004KT 32/08 A3011 RMK A01 T03240084  RH  023%=      5-min Rain = 0
KCO1 112058Z 03002KT 32/08 A3011 RMK A01 T03210083  RH  023%=      5-min Rain = 0
KCO1 112059Z 14002KT 32/09 A3011 RMK A01 T03210085  RH  023%=      5-min Rain = 0
KCO1 112100Z 11002KT 32/08 A3011 RMK A01 T03200084  RH  023%=      5-min Rain = 0
KCO1 112101Z 08007KT 32/08 A3011 RMK A01 T03190084  RH  023%=      5-min Rain = 0
KCO1 112102Z 09007KT 32/09 A3011 RMK A01 T03200086  RH  023%=      5-min Rain = 0
KCO1 112103Z 10008KT 32/08 A3011 RMK A01 T03210084  RH  023%=      5-min Rain = 0
KCO1 112104Z 10006KT 32/09 A3011 RMK A01 T03200086  RH  023%=      5-min Rain = 0
KCO1 112105Z 10004KT 32/09 A301 RMK A01 T03200086  RH  024%=      5-min Rain = 0
KCO1 112106Z 15003KT 32/09 A301 RMK A01 T03210086  RH  023%=      5-min Rain = 0
KCO1 112107Z 15002KT 32/09 A301 RMK A01 T03210085  RH  023%=      5-min Rain = 0
KCO1 112108Z 08003KT 32/09 A301 RMK A01 T03210086  RH  023%=      5-min Rain = 0
KCO1 112109Z 09005KT 32/09 A301 RMK A01 T03230087  RH  023%=      5-min Rain = 0
KCO1 112110Z 09004KT 32/09 A301 RMK A01 T03230086  RH  023%=      5-min Rain = 0
KCO1 112111Z 07006KT 32/09 A301 RMK A01 T03230086  RH  023%=      5-min Rain = 0
KCO1 112112Z 07005KT 32/09 A301 RMK A01 T03220085  RH  023%=      5-min Rain = 0
KCO1 112113Z 07004KT 32/09 A301 RMK A01 T03190085  RH  023%=      5-min Rain = 0
KCO1 112114Z 14005KT 32/09 A301 RMK A01 T03180086  RH  024%=      5-min Rain = 0
KCO1 112115Z 14007KT 32/09 A301 RMK A01 T03210088  RH  024%=      5-min Rain = 0
KCO1 112116Z 10004KT 32/09 A301 RMK A01 T03230088  RH  023%=      5-min Rain = 0
KCO1 112117Z 09009KT 33/09 A301 RMK A01 T03250087  RH  023%=      5-min Rain = 0
KCO1 112118Z 11009KT 33/09 A301 RMK A01 T03250086  RH  023%=      5-min Rain = 0
KCO1 112119Z 09008KT 33/09 A301 RMK A01 T03270088  RH  023%=      5-min Rain = 0
KCO1 112120Z 08009KT 33/09 A301 RMK A01 T03280086  RH  023%=      5-min Rain = 0
KCO1 112121Z 08007KT 33/09 A3009 RMK A01 T03250085  RH  023%=      5-min Rain = 0
KCO1 112122Z 07011KT 33/09 A3009 RMK A01 T03250087  RH  023%=      5-min Rain = 0
KCO1 112123Z 08008KT 33/09 A3009 RMK A01 T03250087  RH  023%=      5-min Rain = 0
KCO1 112124Z 05006KT 33/09 A3009 RMK A01 T03270088  RH  023%=      5-min Rain = 0
KCO1 112125Z 07005KT 33/09 A3009 RMK A01 T03290086  RH  022%=      5-min Rain = 0
KCO1 112126Z 08006KT 33/09 A3009 RMK A01 T03280085  RH  022%=      5-min Rain = 0
KCO1 112127Z 08006KT 32/09 A3009 RMK A01 T03240085  RH  023%=      5-min Rain = 0
KCO1 112128Z 06004KT 32/08 A3009 RMK A01 T03230084  RH  023%=      5-min Rain = 0
KCO1 112129Z 03002KT 32/08 A3009 RMK A01 T03210082  RH  023%=      5-min Rain = 0
KCO1 112130Z 35001KT 32/08 A3009 RMK A01 T03190082  RH  023%=      5-min Rain = 0
KCO1 112131Z 03001KT 32/08 A3009 RMK A01 T03190083  RH  023%=      5-min Rain = 0
KCO1 112132Z 09007KT 32/08 A3009 RMK A01 T03190083  RH  023%=      5-min Rain = 0
KCO1 112133Z 08008KT 32/08 A3009 RMK A01 T03210083  RH  023%=      5-min Rain = 0
KCO1 112134Z 08008KT 32/08 A3009 RMK A01 T03210083  RH  023%=      5-min Rain = 0
KCO1 112135Z 08006KT 32/08 A3009 RMK A01 T03210082  RH  023%=      5-min Rain = 0
KCO1 112136Z 10007KT 32/09 A3009 RMK A01 T03220085  RH  023%=      5-min Rain = 0
KCO1 112137Z 11008KT 33/09 A3009 RMK A01 T03270085  RH  022%=      5-min Rain = 0
KCO1 112138Z 11009KT 33/08 A3009 RMK A01 T03280083  RH  022%=      5-min Rain = 0
KCO1 112139Z 08008KT 33/08 A3009 RMK A01 T03270083  RH  022%=      5-min Rain = 0
KCO1 112140Z 09007KT 33/08 A3009 RMK A01 T03260083  RH  022%=      5-min Rain = 0
KCO1 112141Z 09007KT 33/08 A3009 RMK A01 T03250084  RH  022%=      5-min Rain = 0
KCO1 112142Z 09007KT 33/08 A3009 RMK A01 T03250084  RH  022%=      5-min Rain = 0
KCO1 112143Z 06006KT 33/08 A3009 RMK A01 T03270084  RH  022%=      5-min Rain = 0
KCO1 112144Z 07005KT 33/08 A3009 RMK A01 T03270082  RH  022%=      5-min Rain = 0
KCO1 112145Z 07006KT 33/08 A3009 RMK A01 T03260082  RH  022%=      5-min Rain = 0
KCO1 112146Z 06003KT 32/08 A3009 RMK A01 T03230081  RH  022%=      5-min Rain = 0
KCO1 112147Z 05003KT 32/08 A3009 RMK A01 T03220082  RH  023%=      5-min Rain = 0
KCO1 112148Z 02001KT 32/08 A3009 RMK A01 T03210080  RH  022%=      5-min Rain = 0
KCO1 112149Z 08002KT 32/08 A3009 RMK A01 T03210081  RH  023%=      5-min Rain = 0
KCO1 112150Z 09006KT 32/08 A3009 RMK A01 T03210081  RH  023%=      5-min Rain = 0
KCO1 112151Z 09005KT 32/08 A3009 RMK A01 T03220081  RH  022%=      5-min Rain = 0
KCO1 112152Z 10006KT 32/08 A3008 RMK A01 T03230082  RH  022%=      5-min Rain = 0
KCO1 112153Z 09004KT 32/08 A3008 RMK A01 T03240080  RH  022%=      5-min Rain = 0
KCO1 112154Z 07008KT 32/08 A3009 RMK A01 T03220079  RH  022%=      5-min Rain = 0
KCO1 112155Z 07010KT 32/08 A3009 RMK A01 T03210082  RH  023%=      5-min Rain = 0
KCO1 112156Z 07007KT 32/08 A3009 RMK A01 T03230083  RH  023%=      5-min Rain = 0
KCO1 112157Z 05006KT 33/08 A3009 RMK A01 T03250083  RH  022%=      5-min Rain = 0
KCO1 112158Z 05005KT 33/08 A3009 RMK A01 T03260082  RH  022%=      5-min Rain = 0
KCO1 112159Z 05003KT 32/08 A3008 RMK A01 T03230080  RH  022%=      5-min Rain = 0
KCO1 112200Z 05006KT 32/08 A3008 RMK A01 T03220082  RH  022%=      5-min Rain = 0
KCO1 112201Z 04003KT 32/08 A3008 RMK A01 T03220080  RH  022%=      5-min Rain = 0
KCO1 112202Z 04003KT 32/08 A3008 RMK A01 T03200079  RH  022%=      5-min Rain = 0
KCO1 112203Z 04005KT 32/08 A3008 RMK A01 T03200082  RH  023%=      5-min Rain = 0
KCO1 112204Z 04006KT 32/08 A3008 RMK A01 T03200082  RH  023%=      5-min Rain = 0
KCO1 112205Z 04005KT 32/08 A3008 RMK A01 T03200083  RH  023%=      5-min Rain = 0
KCO1 112206Z 04006KT 32/08 A3008 RMK A01 T03230084  RH  023%=      5-min Rain = 0
KCO1 112207Z 08004KT 32/08 A3008 RMK A01 T03230082  RH  022%=      5-min Rain = 0
KCO1 112208Z 07004KT 32/08 A3008 RMK A01 T03230084  RH  023%=      5-min Rain = 0
KCO1 112209Z 08003KT 32/08 A3008 RMK A01 T03230082  RH  022%=      5-min Rain = 0
KCO1 112210Z 08005KT 32/08 A3008 RMK A01 T03240083  RH  023%=      5-min Rain = 0
KCO1 112211Z 06006KT 33/08 A3008 RMK A01 T03260082  RH  022%=      5-min Rain = 0
KCO1 112212Z 05008KT 33/08 A3008 RMK A01 T03260082  RH  022%=      5-min Rain = 0
KCO1 112213Z 04006KT 33/08 A3008 RMK A01 T03250080  RH  022%=      5-min Rain = 0
KCO1 112214Z 04007KT 32/08 A3008 RMK A01 T03220080  RH  022%=      5-min Rain = 0
KCO1 112215Z 04004KT 32/08 A3008 RMK A01 T03210080  RH  022%=      5-min Rain = 0
KCO1 112216Z 02003KT 32/08 A3008 RMK A01 T03200080  RH  023%=      5-min Rain = 0
KCO1 112217Z 34003KT 32/08 A3008 RMK A01 T03200080  RH  023%=      5-min Rain = 0
KCO1 112218Z 36003KT 32/08 A3008 RMK A01 T03200080  RH  023%=      5-min Rain = 0
KCO1 112219Z 07007KT 32/08 A3008 RMK A01 T03200082  RH  023%=      5-min Rain = 0
KCO1 112220Z 08008KT 32/08 A3008 RMK A01 T03220081  RH  022%=      5-min Rain = 0
KCO1 112221Z 06010KT 32/08 A3008 RMK A01 T03230081  RH  022%=      5-min Rain = 0
KCO1 112222Z 07006KT 32/08 A3008 RMK A01 T03230080  RH  022%=      5-min Rain = 0
KCO1 112223Z 07004KT 32/08 A3008 RMK A01 T03240080  RH  022%=      5-min Rain = 0
KCO1 112224Z 06003KT 32/08 A3008 RMK A01 T03240079  RH  022%=      5-min Rain = 0
KCO1 112225Z 06008KT 32/08 A3008 RMK A01 T03230079  RH  022%=      5-min Rain = 0
KCO1 112226Z 09007KT 32/08 A3008 RMK A01 T03240080  RH  022%=      5-min Rain = 0
KCO1 112227Z 10004KT 32/08 A3008 RMK A01 T03240079  RH  022%=      5-min Rain = 0
KCO1 112228Z 08004KT 32/08 A3008 RMK A01 T03240080  RH  022%=      5-min Rain = 0
KCO1 112229Z 05007KT 33/08 A3008 RMK A01 T03250079  RH  022%=      5-min Rain = 0
KCO1 112230Z 06008KT 33/08 A3008 RMK A01 T03250080  RH  022%=      5-min Rain = 0
KCO1 112231Z 06006KT 33/08 A3008 RMK A01 T03250077  RH  022%=      5-min Rain = 0
KCO1 112232Z 07003KT 32/08 A3008 RMK A01 T03220076  RH  022%=      5-min Rain = 0
KCO1 112233Z 07002KT 32/08 A3008 RMK A01 T03190076  RH  022%=      5-min Rain = 0
KCO1 112234Z 11002KT 32/08 A3008 RMK A01 T03190077  RH  022%=      5-min Rain = 0
KCO1 112235Z 08003KT 32/08 A3008 RMK A01 T03210079  RH  022%=      5-min Rain = 0
KCO1 112236Z 08003KT 32/08 A3008 RMK A01 T03220077  RH  022%=      5-min Rain = 0
KCO1 112237Z 08007KT 32/08 A3008 RMK A01 T03220079  RH  022%=      5-min Rain = 0
KCO1 112238Z 07006KT 32/08 A3008 RMK A01 T03220078  RH  022%=      5-min Rain = 0
KCO1 112239Z 06004KT 32/08 A3008 RMK A01 T03210078  RH  022%=      5-min Rain = 0
KCO1 112240Z 08003KT 32/08 A3008 RMK A01 T03190078  RH  022%=      5-min Rain = 0
KCO1 112241Z 07003KT 32/08 A3008 RMK A01 T03210081  RH  023%=      5-min Rain = 0
KCO1 112242Z 06005KT 32/08 A3008 RMK A01 T03230080  RH  022%=      5-min Rain = 0
KCO1 112243Z 04004KT 32/08 A3008 RMK A01 T03240078  RH  022%=      5-min Rain = 0
KCO1 112244Z 03003KT 32/08 A3008 RMK A01 T03220077  RH  022%=      5-min Rain = 0
KCO1 112245Z 34002KT 32/08 A3008 RMK A01 T03200078  RH  022%=      5-min Rain = 0
KCO1 112246Z 01002KT 32/08 A3008 RMK A01 T03200079  RH  022%=      5-min Rain = 0
KCO1 112247Z 03000KT 32/08 A3007 RMK A01 T03210079  RH  022%=      5-min Rain = 0
KCO1 112248Z 07000KT 32/08 A3007 RMK A01 T03220079  RH  022%=      5-min Rain = 0
KCO1 112249Z 13003KT 32/08 A3007 RMK A01 T03230079  RH  022%=      5-min Rain = 0
KCO1 112250Z 12003KT 32/08 A3007 RMK A01 T03240079  RH  022%=      5-min Rain = 0
KCO1 112251Z 11005KT 33/08 A3007 RMK A01 T03250082  RH  022%=      5-min Rain = 0
KCO1 112252Z 10004KT 33/08 A3007 RMK A01 T03260081  RH  022%=      5-min Rain = 0
KCO1 112253Z 09005KT 33/08 A3007 RMK A01 T03270081  RH  022%=      5-min Rain = 0
KCO1 112254Z 07002KT 33/08 A3007 RMK A01 T03260080  RH  022%=      5-min Rain = 0
KCO1 112255Z 10002KT 33/08 A3007 RMK A01 T03250079  RH  022%=      5-min Rain = 0
KCO1 112256Z 11003KT 33/08 A3007 RMK A01 T03250080  RH  022%=      5-min Rain = 0
KCO1 112257Z 11005KT 33/08 A3007 RMK A01 T03250079  RH  022%=      5-min Rain = 0
KCO1 112258Z 10007KT 33/08 A3007 RMK A01 T03250079  RH  022%=      5-min Rain = 0
KCO1 112259Z 10006KT 33/08 A3007 RMK A01 T03250078  RH  022%=      5-min Rain = 0
KCO1 112300Z 12007KT 32/08 A3007 RMK A01 T03240078  RH  022%=      5-min Rain = 0
KCO1 112301Z 11008KT 32/08 A3007 RMK A01 T03240079  RH  022%=      5-min Rain = 0
KCO1 112302Z 08009KT 32/08 A3007 RMK A01 T03240079  RH  022%=      5-min Rain = 0
KCO1 112303Z 07006KT 32/08 A3007 RMK A01 T03240078  RH  022%=      5-min Rain = 0
KCO1 112304Z 07006KT 32/08 A3007 RMK A01 T03230078  RH  022%=      5-min Rain = 0
KCO1 112305Z 08005KT 32/08 A3007 RMK A01 T03230078  RH  022%=      5-min Rain = 0
KCO1 112306Z 08003KT 32/08 A3007 RMK A01 T03230076  RH  022%=      5-min Rain = 0
KCO1 112307Z 07000KT 32/08 A3007 RMK A01 T03220076  RH  022%=      5-min Rain = 0
KCO1 112308Z 07003KT 32/08 A3007 RMK A01 T03220076  RH  022%=      5-min Rain = 0
KCO1 112309Z 06003KT 32/08 A3007 RMK A01 T03220075  RH  022%=      5-min Rain = 0
KCO1 112310Z 07004KT 32/08 A3007 RMK A01 T03220078  RH  022%=      5-min Rain = 0
KCO1 112311Z 10006KT 32/08 A3007 RMK A01 T03220078  RH  022%=      5-min Rain = 0
KCO1 112312Z 07005KT 32/08 A3007 RMK A01 T03230077  RH  022%=      5-min Rain = 0
KCO1 112313Z 05002KT 32/08 A3007 RMK A01 T03220076  RH  022%=      5-min Rain = 0
KCO1 112314Z 09005KT 32/08 A3007 RMK A01 T03210076  RH  022%=      5-min Rain = 0
KCO1 112315Z 08005KT 32/08 A3007 RMK A01 T03220077  RH  022%=      5-min Rain = 0
KCO1 112316Z 09005KT 32/08 A3007 RMK A01 T03240079  RH  022%=      5-min Rain = 0
KCO1 112317Z 09005KT 33/08 A3007 RMK A01 T03270079  RH  022%=      5-min Rain = 0
KCO1 112318Z 11005KT 33/08 A3007 RMK A01 T03270077  RH  021%=      5-min Rain = 0
KCO1 112319Z 12005KT 33/08 A3007 RMK A01 T03270077  RH  021%=      5-min Rain = 0
KCO1 112320Z 11005KT 33/08 A3007 RMK A01 T03270078  RH  021%=      5-min Rain = 0
KCO1 112321Z 09005KT 33/08 A3007 RMK A01 T03270077  RH  021%=      5-min Rain = 0
KCO1 112322Z 11004KT 33/08 A3007 RMK A01 T03260077  RH  021%=      5-min Rain = 0
KCO1 112323Z 08007KT 33/08 A3007 RMK A01 T03260076  RH  021%=      5-min Rain = 0
KCO1 112324Z 06004KT 32/08 A3007 RMK A01 T03240075  RH  021%=      5-min Rain = 0
KCO1 112325Z 06003KT 32/08 A3007 RMK A01 T03240076  RH  021%=      5-min Rain = 0
KCO1 112326Z 07004KT 33/08 A3007 RMK A01 T03250077  RH  021%=      5-min Rain = 0
KCO1 112327Z 07006KT 33/08 A3007 RMK A01 T03260077  RH  021%=      5-min Rain = 0
KCO1 112328Z 07007KT 33/08 A3007 RMK A01 T03270077  RH  021%=      5-min Rain = 0
KCO1 112329Z 08007KT 33/08 A3007 RMK A01 T03260075  RH  021%=      5-min Rain = 0
KCO1 112330Z 07007KT 32/08 A3007 RMK A01 T03240075  RH  021%=      5-min Rain = 0
KCO1 112331Z 07006KT 32/07 A3007 RMK A01 T03230074  RH  021%=      5-min Rain = 0
KCO1 112332Z 08007KT 32/08 A3007 RMK A01 T03220075  RH  022%=      5-min Rain = 0
KCO1 112333Z 07006KT 32/08 A3007 RMK A01 T03210076  RH  022%=      5-min Rain = 0
KCO1 112334Z 08006KT 32/08 A3007 RMK A01 T03210077  RH  022%=      5-min Rain = 0
KCO1 112335Z 09005KT 32/08 A3007 RMK A01 T03220076  RH  022%=      5-min Rain = 0
KCO1 112336Z 08004KT 32/08 A3007 RMK A01 T03220076  RH  022%=      5-min Rain = 0
KCO1 112337Z 08004KT 32/08 A3007 RMK A01 T03210075  RH  022%=      5-min Rain = 0
KCO1 112338Z 06005KT 32/08 A3007 RMK A01 T03210076  RH  022%=      5-min Rain = 0
KCO1 112339Z 06003KT 32/08 A3007 RMK A01 T03210075  RH  022%=      5-min Rain = 0
KCO1 112340Z 07004KT 32/08 A3007 RMK A01 T03200075  RH  022%=      5-min Rain = 0
KCO1 112341Z 08004KT 32/08 A3007 RMK A01 T03200075  RH  022%=      5-min Rain = 0
KCO1 112342Z 07005KT 32/08 A3007 RMK A01 T03200076  RH  022%=      5-min Rain = 0
KCO1 112343Z 07004KT 32/08 A3006 RMK A01 T03200076  RH  022%=      5-min Rain = 0
KCO1 112344Z 07005KT 32/08 A3006 RMK A01 T03200077  RH  022%=      5-min Rain = 0
KCO1 112345Z 07004KT 32/08 A3007 RMK A01 T03210077  RH  022%=      5-min Rain = 0
KCO1 112346Z 08004KT 32/08 A3006 RMK A01 T03200076  RH  022%=      5-min Rain = 0
KCO1 112347Z 10006KT 32/08 A3007 RMK A01 T03190077  RH  022%=      5-min Rain = 0
KCO1 112348Z 11006KT 32/08 A3007 RMK A01 T03190077  RH  022%=      5-min Rain = 0
KCO1 112349Z 09006KT 32/08 A3007 RMK A01 T03190077  RH  022%=      5-min Rain = 0
KCO1 112350Z 08008KT 32/08 A3007 RMK A01 T03200078  RH  022%=      5-min Rain = 0
KCO1 112351Z 07006KT 32/08 A3007 RMK A01 T03200076  RH  022%=      5-min Rain = 0
KCO1 112352Z 07005KT 32/08 A3007 RMK A01 T03190076  RH  022%=      5-min Rain = 0
KCO1 112353Z 08007KT 32/08 A3007 RMK A01 T03190077  RH  022%=      5-min Rain = 0
KCO1 112354Z 08005KT 32/08 A3007 RMK A01 T03190078  RH  022%=      5-min Rain = 0
KCO1 112355Z 07006KT 32/08 A3007 RMK A01 T03190078  RH  022%=      5-min Rain = 0
KCO1 112356Z 07005KT 32/08 A3007 RMK A01 T03190076  RH  022%=      5-min Rain = 0
KCO1 112357Z 07004KT 32/08 A3007 RMK A01 T03180076  RH  022%=      5-min Rain = 0
KCO1 112358Z 07006KT 32/08 A3007 RMK A01 T03170077  RH  022%=      5-min Rain = 0
KCO1 112359Z 07004KT 32/08 A3007 RMK A01 T03170076  RH  022%=      5-min Rain = 0
KCO1 120000Z 06004KT 32/08 A3007 RMK A01 T03170077  RH  022%=      5-min Rain = 0
KCO1 120001Z 05005KT 32/08 A3007 RMK A01 T03180076  RH  022%=      5-min Rain = 0
KCO1 120002Z 04005KT 32/08 A3007 RMK A01 T03180077  RH  022%=      5-min Rain = 0
KCO1 120003Z 04003KT 32/08 A3007 RMK A01 T03180075  RH  022%=      5-min Rain = 0
KCO1 120004Z 05002KT 32/08 A3007 RMK A01 T03170076  RH  022%=      5-min Rain = 0
KCO1 120005Z 07004KT 32/08 A3007 RMK A01 T03170077  RH  022%=      5-min Rain = 0
KCO1 120006Z 11005KT 32/08 A3007 RMK A01 T03170077  RH  022%=      5-min Rain = 0
KCO1 120007Z 09005KT 32/08 A3007 RMK A01 T03180077  RH  022%=      5-min Rain = 0
KCO1 120008Z 10009KT 32/08 A3007 RMK A01 T03170076  RH  022%=      5-min Rain = 0
KCO1 120009Z 10008KT 32/08 A3007 RMK A01 T03170075  RH  022%=      5-min Rain = 0
KCO1 120010Z 10007KT 32/07 A3007 RMK A01 T03150074  RH  022%=      5-min Rain = 0
KCO1 120011Z 10006KT 32/08 A3007 RMK A01 T03150075  RH  022%=      5-min Rain = 0
KCO1 120012Z 10004KT 32/08 A3007 RMK A01 T03150075  RH  023%=      5-min Rain = 0
KCO1 120013Z 11007KT 32/08 A3007 RMK A01 T03150076  RH  023%=      5-min Rain = 0
KCO1 120014Z 11006KT 32/08 A3007 RMK A01 T03150075  RH  023%=      5-min Rain = 0
KCO1 120015Z 11005KT 32/08 A3007 RMK A01 T03150076  RH  023%=      5-min Rain = 0
KCO1 120016Z 12006KT 32/08 A3007 RMK A01 T03150075  RH  022%=      5-min Rain = 0
KCO1 120017Z 11006KT 31/08 A3007 RMK A01 T03140075  RH  022%=      5-min Rain = 0
KCO1 120018Z 11006KT 31/08 A3007 RMK A01 T03140075  RH  023%=      5-min Rain = 0
KCO1 120019Z 11005KT 31/08 A3007 RMK A01 T03130075  RH  023%=      5-min Rain = 0
KCO1 120020Z 11005KT 31/08 A3007 RMK A01 T03130075  RH  023%=      5-min Rain = 0
KCO1 120021Z 11006KT 31/08 A3007 RMK A01 T03120075  RH  023%=      5-min Rain = 0
KCO1 120022Z 12004KT 31/08 A3007 RMK A01 T03120075  RH  023%=      5-min Rain = 0
KCO1 120023Z 11004KT 31/08 A3007 RMK A01 T03120076  RH  023%=      5-min Rain = 0
KCO1 120024Z 12004KT 31/08 A3007 RMK A01 T03120075  RH  023%=      5-min Rain = 0
KCO1 120025Z 13004KT 31/08 A3007 RMK A01 T03120075  RH  023%=      5-min Rain = 0
KCO1 120026Z 13005KT 31/08 A3007 RMK A01 T03120076  RH  023%=      5-min Rain = 0
KCO1 120027Z 13005KT 31/08 A3007 RMK A01 T03110076  RH  023%=      5-min Rain = 0
KCO1 120028Z 12005KT 31/08 A3006 RMK A01 T03110075  RH  023%=      5-min Rain = 0
KCO1 120029Z 11005KT 31/08 A3006 RMK A01 T03110076  RH  023%=      5-min Rain = 0
KCO1 120030Z 11005KT 31/08 A3006 RMK A01 T03100078  RH  023%=      5-min Rain = 0
KCO1 120031Z 11005KT 31/08 A3006 RMK A01 T03090077  RH  023%=      5-min Rain = 0
KCO1 120032Z 11007KT 31/08 A3006 RMK A01 T03090076  RH  023%=      5-min Rain = 0
KCO1 120033Z 09006KT 31/08 A3006 RMK A01 T03090076  RH  023%=      5-min Rain = 0
KCO1 120034Z 09006KT 31/08 A3006 RMK A01 T03090075  RH  023%=      5-min Rain = 0
KCO1 120035Z 09006KT 31/08 A3006 RMK A01 T03080075  RH  023%=      5-min Rain = 0
KCO1 120036Z 09005KT 31/08 A3006 RMK A01 T03080075  RH  023%=      5-min Rain = 0
KCO1 120037Z 09005KT 31/08 A3006 RMK A01 T03080075  RH  023%=      5-min Rain = 0
KCO1 120038Z 09004KT 31/08 A3006 RMK A01 T03070075  RH  023%=      5-min Rain = 0
KCO1 120039Z 10004KT 31/08 A3006 RMK A01 T03060075  RH  024%=      5-min Rain = 0
KCO1 120040Z 10003KT 31/08 A3006 RMK A01 T03060075  RH  024%=      5-min Rain = 0
KCO1 120041Z 10004KT 31/08 A3006 RMK A01 T03060075  RH  024%=      5-min Rain = 0
KCO1 120042Z 11004KT 31/08 A3006 RMK A01 T03060075  RH  024%=      5-min Rain = 0
KCO1 120043Z 12005KT 31/08 A3006 RMK A01 T03060075  RH  024%=      5-min Rain = 0
KCO1 120044Z 12004KT 31/08 A3006 RMK A01 T03050075  RH  024%=      5-min Rain = 0
KCO1 120045Z 12004KT 31/08 A3006 RMK A01 T03050076  RH  024%=      5-min Rain = 0
KCO1 120046Z 12004KT 30/08 A3006 RMK A01 T03040076  RH  024%=      5-min Rain = 0
KCO1 120047Z 12004KT 30/08 A3006 RMK A01 T03040076  RH  024%=      5-min Rain = 0
KCO1 120048Z 12005KT 30/08 A3006 RMK A01 T03030077  RH  024%=      5-min Rain = 0
KCO1 120049Z 12005KT 30/08 A3006 RMK A01 T03020077  RH  024%=      5-min Rain = 0
KCO1 120050Z 12005KT 30/08 A3006 RMK A01 T03010077  RH  025%=      5-min Rain = 0
KCO1 120051Z 12004KT 30/08 A3006 RMK A01 T03000077  RH  025%=      5-min Rain = 0
KCO1 120052Z 12004KT 30/08 A3006 RMK A01 T02990077  RH  025%=      5-min Rain = 0
KCO1 120053Z 13004KT 30/08 A3006 RMK A01 T02980078  RH  025%=      5-min Rain = 0
KCO1 120054Z 13004KT 30/08 A3006 RMK A01 T02980078  RH  025%=      5-min Rain = 0
KCO1 120055Z 13004KT 30/08 A3006 RMK A01 T02970079  RH  025%=      5-min Rain = 0
KCO1 120056Z 13004KT 30/08 A3006 RMK A01 T02960079  RH  026%=      5-min Rain = 0
KCO1 120057Z 13004KT 30/08 A3006 RMK A01 T02950079  RH  026%=      5-min Rain = 0
KCO1 120058Z 13004KT 29/08 A3006 RMK A01 T02940079  RH  026%=      5-min Rain = 0
KCO1 120059Z 13004KT 29/08 A3006 RMK A01 T02930079  RH  026%=      5-min Rain = 0
KCO1 120100Z 13004KT 29/08 A3006 RMK A01 T02920079  RH  026%=      5-min Rain = 0
KCO1 120101Z 13004KT 29/08 A3006 RMK A01 T02910079  RH  026%=      5-min Rain = 0
KCO1 120102Z 13004KT 29/08 A3006 RMK A01 T02900079  RH  027%=      5-min Rain = 0
KCO1 120103Z 13004KT 29/08 A3007 RMK A01 T02890078  RH  027%=      5-min Rain = 0
KCO1 120104Z 13004KT 29/08 A3007 RMK A01 T02880079  RH  027%=      5-min Rain = 0
KCO1 120105Z 12004KT 29/08 A3007 RMK A01 T02870079  RH  027%=      5-min Rain = 0
KCO1 120106Z 12004KT 29/08 A3007 RMK A01 T02860079  RH  027%=      5-min Rain = 0
KCO1 120107Z 11003KT 29/08 A3007 RMK A01 T02850079  RH  027%=      5-min Rain = 0
KCO1 120108Z 10002KT 28/08 A3007 RMK A01 T02840079  RH  028%=      5-min Rain = 0
KCO1 120109Z 11004KT 28/08 A3007 RMK A01 T02830079  RH  028%=      5-min Rain = 0
KCO1 120110Z 12004KT 28/08 A3007 RMK A01 T02830080  RH  028%=      5-min Rain = 0
KCO1 120111Z 12004KT 28/08 A3007 RMK A01 T02820080  RH  028%=      5-min Rain = 0
KCO1 120112Z 12004KT 28/08 A3007 RMK A01 T02810079  RH  028%=      5-min Rain = 0
KCO1 120113Z 12004KT 28/08 A3007 RMK A01 T02810079  RH  028%=      5-min Rain = 0
KCO1 120114Z 12004KT 28/08 A3007 RMK A01 T02800079  RH  028%=      5-min Rain = 0
KCO1 120115Z 12004KT 28/08 A3007 RMK A01 T02800079  RH  028%=      5-min Rain = 0
KCO1 120116Z 12004KT 28/08 A3007 RMK A01 T02790079  RH  028%=      5-min Rain = 0
KCO1 120117Z 12004KT 28/08 A3007 RMK A01 T02790079  RH  028%=      5-min Rain = 0
KCO1 120118Z 13004KT 28/08 A3007 RMK A01 T02780080  RH  029%=      5-min Rain = 0
KCO1 120119Z 13004KT 28/08 A3007 RMK A01 T02780079  RH  029%=      5-min Rain = 0
KCO1 120120Z 13004KT 28/08 A3007 RMK A01 T02780079  RH  029%=      5-min Rain = 0
KCO1 120121Z 12004KT 28/08 A3006 RMK A01 T02770079  RH  029%=      5-min Rain = 0
KCO1 120122Z 13004KT 28/08 A3006 RMK A01 T02760078  RH  029%=      5-min Rain = 0
KCO1 120123Z 13004KT 28/08 A3006 RMK A01 T02750078  RH  029%=      5-min Rain = 0
KCO1 120124Z 13005KT 28/08 A3006 RMK A01 T02750078  RH  029%=      5-min Rain = 0
KCO1 120125Z 12005KT 27/08 A3006 RMK A01 T02740078  RH  029%=      5-min Rain = 0
KCO1 120126Z 11005KT 27/08 A3006 RMK A01 T02740078  RH  029%=      5-min Rain = 0
KCO1 120127Z 11005KT 27/08 A3006 RMK A01 T02730077  RH  029%=      5-min Rain = 0
KCO1 120128Z 11005KT 27/08 A3006 RMK A01 T02710078  RH  029%=      5-min Rain = 0
KCO1 120129Z 12004KT 27/08 A3007 RMK A01 T02700078  RH  030%=      5-min Rain = 0
KCO1 120130Z 12004KT 27/08 A3007 RMK A01 T02690077  RH  030%=      5-min Rain = 0
KCO1 120131Z 12005KT 27/08 A3007 RMK A01 T02680077  RH  030%=      5-min Rain = 0
KCO1 120132Z 11005KT 27/08 A3007 RMK A01 T02670078  RH  030%=      5-min Rain = 0
KCO1 120133Z 11006KT 27/08 A3007 RMK A01 T02670079  RH  030%=      5-min Rain = 0
KCO1 120134Z 11006KT 27/08 A3007 RMK A01 T02670080  RH  031%=      5-min Rain = 0
KCO1 120135Z 11006KT 27/08 A3007 RMK A01 T02660080  RH  031%=      5-min Rain = 0
KCO1 120136Z 11006KT 27/08 A3007 RMK A01 T02660080  RH  031%=      5-min Rain = 0
KCO1 120137Z 11006KT 27/08 A3007 RMK A01 T02660080  RH  031%=      5-min Rain = 0
KCO1 120138Z 11005KT 27/08 A3007 RMK A01 T02650079  RH  031%=      5-min Rain = 0
KCO1 120139Z 11005KT 27/08 A3007 RMK A01 T02650079  RH  031%=      5-min Rain = 0
KCO1 120140Z 11005KT 26/08 A3007 RMK A01 T02640079  RH  031%=      5-min Rain = 0
KCO1 120141Z 11006KT 26/08 A3007 RMK A01 T02640079  RH  031%=      5-min Rain = 0
KCO1 120142Z 12006KT 26/08 A3007 RMK A01 T02630080  RH  031%=      5-min Rain = 0
KCO1 120143Z 12006KT 26/08 A3007 RMK A01 T02630080  RH  031%=      5-min Rain = 0
KCO1 120144Z 12006KT 26/08 A3007 RMK A01 T02620080  RH  031%=      5-min Rain = 0
KCO1 120145Z 12006KT 26/08 A3007 RMK A01 T02620080  RH  031%=      5-min Rain = 0
KCO1 120146Z 12006KT 26/08 A3007 RMK A01 T02620080  RH  032%=      5-min Rain = 0
KCO1 120147Z 12006KT 26/08 A3007 RMK A01 T02610080  RH  032%=      5-min Rain = 0
KCO1 120148Z 12006KT 26/08 A3007 RMK A01 T02610080  RH  032%=      5-min Rain = 0
KCO1 120149Z 12006KT 26/08 A3007 RMK A01 T02600080  RH  032%=      5-min Rain = 0
KCO1 120150Z 12006KT 26/08 A3007 RMK A01 T02590080  RH  032%=      5-min Rain = 0
KCO1 120151Z 12006KT 26/08 A3007 RMK A01 T02590080  RH  032%=      5-min Rain = 0
KCO1 120152Z 12006KT 26/08 A3007 RMK A01 T02580080  RH  032%=      5-min Rain = 0
KCO1 120153Z 12006KT 26/08 A3007 RMK A01 T02570080  RH  032%=      5-min Rain = 0
KCO1 120154Z 12006KT 26/08 A3007 RMK A01 T02570080  RH  032%=      5-min Rain = 0
KCO1 120155Z 12006KT 26/08 A3007 RMK A01 T02560079  RH  033%=      5-min Rain = 0
KCO1 120156Z 12006KT 26/08 A3007 RMK A01 T02560079  RH  032%=      5-min Rain = 0
KCO1 120157Z 12006KT 26/08 A3007 RMK A01 T02550079  RH  032%=      5-min Rain = 0
KCO1 120158Z 12006KT 26/08 A3007 RMK A01 T02550078  RH  033%=      5-min Rain = 0
KCO1 120159Z 12006KT 26/08 A3007 RMK A01 T02550079  RH  033%=      5-min Rain = 0
KCO1 120200Z 12006KT 26/08 A3007 RMK A01 T02550079  RH  033%=      5-min Rain = 0
KCO1 120201Z 12006KT 26/08 A3007 RMK A01 T02550079  RH  033%=      5-min Rain = 0
KCO1 120202Z 12006KT 25/08 A3007 RMK A01 T02540079  RH  033%=      5-min Rain = 0
KCO1 120203Z 12006KT 25/08 A3007 RMK A01 T02540079  RH  033%=      5-min Rain = 0
KCO1 120204Z 12006KT 25/08 A3007 RMK A01 T02540079  RH  033%=      5-min Rain = 0
KCO1 120205Z 12007KT 25/08 A3007 RMK A01 T02530079  RH  033%=      5-min Rain = 0
KCO1 120206Z 12007KT 25/08 A3007 RMK A01 T02530079  RH  033%=      5-min Rain = 0
KCO1 120207Z 12007KT 25/08 A3007 RMK A01 T02520079  RH  033%=      5-min Rain = 0
KCO1 120208Z 12007KT 25/08 A3007 RMK A01 T02520079  RH  033%=      5-min Rain = 0
KCO1 120209Z 12007KT 25/08 A3007 RMK A01 T02520079  RH  033%=      5-min Rain = 0
KCO1 120210Z 12007KT 25/08 A3008 RMK A01 T02520079  RH  033%=      5-min Rain = 0
KCO1 120211Z 12007KT 25/08 A3007 RMK A01 T02510079  RH  033%=      5-min Rain = 0
KCO1 120212Z 12007KT 25/08 A3007 RMK A01 T02510079  RH  033%=      5-min Rain = 0
KCO1 120213Z 12007KT 25/08 A3007 RMK A01 T02510079  RH  033%=      5-min Rain = 0
KCO1 120214Z 12007KT 25/08 A3007 RMK A01 T02510079  RH  033%=      5-min Rain = 0
KCO1 120215Z 12007KT 25/08 A3007 RMK A01 T02510079  RH  033%=      5-min Rain = 0
KCO1 120216Z 12006KT 25/08 A3007 RMK A01 T02510079  RH  033%=      5-min Rain = 0
KCO1 120217Z 12006KT 25/08 A3008 RMK A01 T02510079  RH  033%=      5-min Rain = 0
KCO1 120218Z 12006KT 25/08 A3008 RMK A01 T02500078  RH  033%=      5-min Rain = 0
KCO1 120219Z 12007KT 25/08 A3008 RMK A01 T02500079  RH  033%=      5-min Rain = 0
KCO1 120220Z 12007KT 25/08 A3008 RMK A01 T02500079  RH  034%=      5-min Rain = 0
KCO1 120221Z 12007KT 25/08 A3008 RMK A01 T02500079  RH  034%=      5-min Rain = 0
KCO1 120222Z 12007KT 25/08 A3008 RMK A01 T02490079  RH  034%=      5-min Rain = 0
KCO1 120223Z 12007KT 25/08 A3008 RMK A01 T02490079  RH  034%=      5-min Rain = 0
KCO1 120224Z 13006KT 25/08 A3008 RMK A01 T02490079  RH  034%=      5-min Rain = 0
KCO1 120225Z 13007KT 25/08 A3008 RMK A01 T02490080  RH  034%=      5-min Rain = 0
KCO1 120226Z 13007KT 25/08 A3008 RMK A01 T02480080  RH  034%=      5-min Rain = 0
KCO1 120227Z 13006KT 25/08 A3008 RMK A01 T02480079  RH  034%=      5-min Rain = 0
KCO1 120228Z 13006KT 25/08 A3008 RMK A01 T02480080  RH  034%=      5-min Rain = 0
KCO1 120229Z 13006KT 25/08 A3008 RMK A01 T02480080  RH  034%=      5-min Rain = 0
KCO1 120230Z 12007KT 25/08 A3008 RMK A01 T02470081  RH  035%=      5-min Rain = 0
KCO1 120231Z 13007KT 25/08 A3008 RMK A01 T02480081  RH  035%=      5-min Rain = 0
KCO1 120232Z 13006KT 25/08 A3008 RMK A01 T02470082  RH  035%=      5-min Rain = 0
KCO1 120233Z 13006KT 25/08 A3008 RMK A01 T02480082  RH  035%=      5-min Rain = 0
KCO1 120234Z 13006KT 25/08 A3008 RMK A01 T02470082  RH  035%=      5-min Rain = 0
KCO1 120235Z 13006KT 25/08 A3008 RMK A01 T02480082  RH  035%=      5-min Rain = 0
KCO1 120236Z 13006KT 25/08 A3008 RMK A01 T02470082  RH  035%=      5-min Rain = 0
KCO1 120237Z 13006KT 25/08 A3008 RMK A01 T02470082  RH  035%=      5-min Rain = 0
KCO1 120238Z 13006KT 25/08 A3008 RMK A01 T02470082  RH  035%=      5-min Rain = 0
KCO1 120239Z 13006KT 25/08 A3008 RMK A01 T02460082  RH  035%=      5-min Rain = 0
KCO1 120240Z 13006KT 25/08 A3008 RMK A01 T02460081  RH  035%=      5-min Rain = 0
KCO1 120241Z 13006KT 25/08 A3008 RMK A01 T02460081  RH  035%=      5-min Rain = 0
KCO1 120242Z 13006KT 25/08 A3008 RMK A01 T02450080  RH  035%=      5-min Rain = 0
KCO1 120243Z 13006KT 25/08 A3008 RMK A01 T02450080  RH  035%=      5-min Rain = 0
KCO1 120244Z 14006KT 25/08 A3008 RMK A01 T02450079  RH  035%=      5-min Rain = 0
KCO1 120245Z 14006KT 25/08 A3008 RMK A01 T02450078  RH  035%=      5-min Rain = 0
KCO1 120246Z 14006KT 25/08 A3008 RMK A01 T02450078  RH  034%=      5-min Rain = 0
KCO1 120247Z 14006KT 25/08 A3008 RMK A01 T02450078  RH  034%=      5-min Rain = 0
KCO1 120248Z 14005KT 25/08 A3008 RMK A01 T02450078  RH  034%=      5-min Rain = 0
KCO1 120249Z 14006KT 24/08 A3008 RMK A01 T02440077  RH  034%=      5-min Rain = 0
KCO1 120250Z 14006KT 24/08 A3008 RMK A01 T02440078  RH  035%=      5-min Rain = 0
KCO1 120251Z 14006KT 24/08 A3008 RMK A01 T02440077  RH  035%=      5-min Rain = 0
KCO1 120252Z 14006KT 24/08 A3008 RMK A01 T02430077  RH  035%=      5-min Rain = 0
KCO1 120253Z 14006KT 24/08 A3008 RMK A01 T02430077  RH  035%=      5-min Rain = 0
KCO1 120254Z 14006KT 24/08 A3008 RMK A01 T02420077  RH  035%=      5-min Rain = 0
KCO1 120255Z 14006KT 24/08 A3008 RMK A01 T02420077  RH  035%=      5-min Rain = 0
KCO1 120256Z 14006KT 24/08 A3008 RMK A01 T02420077  RH  035%=      5-min Rain = 0
KCO1 120257Z 14006KT 24/08 A3008 RMK A01 T02420077  RH  035%=      5-min Rain = 0
KCO1 120258Z 14006KT 24/08 A3008 RMK A01 T02410077  RH  035%=      5-min Rain = 0
KCO1 120259Z 13006KT 24/08 A3008 RMK A01 T02410077  RH  035%=      5-min Rain = 0
KCO1 120300Z 13006KT 24/08 A3008 RMK A01 T02410076  RH  035%=      5-min Rain = 0
KCO1 120301Z 13006KT 24/08 A3008 RMK A01 T02410076  RH  035%=      5-min Rain = 0
KCO1 120302Z 13006KT 24/08 A3008 RMK A01 T02400076  RH  035%=      5-min Rain = 0
KCO1 120303Z 13006KT 24/08 A3008 RMK A01 T02410076  RH  035%=      5-min Rain = 0
KCO1 120304Z 13006KT 24/08 A3008 RMK A01 T02400076  RH  035%=      5-min Rain = 0
KCO1 120305Z 13006KT 24/08 A3008 RMK A01 T02400076  RH  035%=      5-min Rain = 0
KCO1 120306Z 13006KT 24/08 A3008 RMK A01 T02400076  RH  035%=      5-min Rain = 0
KCO1 120307Z 13006KT 24/08 A3008 RMK A01 T02390076  RH  035%=      5-min Rain = 0
KCO1 120308Z 13006KT 24/08 A3008 RMK A01 T02390076  RH  035%=      5-min Rain = 0
KCO1 120309Z 13006KT 24/08 A3008 RMK A01 T02390076  RH  035%=      5-min Rain = 0
KCO1 120310Z 13006KT 24/08 A3008 RMK A01 T02380076  RH  035%=      5-min Rain = 0
KCO1 120311Z 13006KT 24/08 A3008 RMK A01 T02380076  RH  035%=      5-min Rain = 0
KCO1 120312Z 14006KT 24/08 A3008 RMK A01 T02380076  RH  035%=      5-min Rain = 0
KCO1 120313Z 13006KT 24/08 A3008 RMK A01 T02380076  RH  035%=      5-min Rain = 0
KCO1 120314Z 13006KT 24/08 A3008 RMK A01 T02370075  RH  035%=      5-min Rain = 0
KCO1 120315Z 14006KT 24/08 A3008 RMK A01 T02370076  RH  035%=      5-min Rain = 0
KCO1 120316Z 14006KT 24/08 A3008 RMK A01 T02370075  RH  035%=      5-min Rain = 0
KCO1 120317Z 14006KT 24/08 A3008 RMK A01 T02380075  RH  035%=      5-min Rain = 0
KCO1 120318Z 14006KT 24/08 A3008 RMK A01 T02380075  RH  035%=      5-min Rain = 0
KCO1 120319Z 13006KT 24/08 A3008 RMK A01 T02370075  RH  035%=      5-min Rain = 0
KCO1 120320Z 13006KT 24/08 A3008 RMK A01 T02380075  RH  035%=      5-min Rain = 0
KCO1 120321Z 13006KT 24/08 A3008 RMK A01 T02370075  RH  035%=      5-min Rain = 0
KCO1 120322Z 13006KT 24/08 A3008 RMK A01 T02380075  RH  035%=      5-min Rain = 0
KCO1 120323Z 14006KT 24/08 A3008 RMK A01 T02370075  RH  035%=      5-min Rain = 0
KCO1 120324Z 14006KT 24/08 A3008 RMK A01 T02370075  RH  035%=      5-min Rain = 0
KCO1 120325Z 14006KT 24/08 A3008 RMK A01 T02370075  RH  035%=      5-min Rain = 0
KCO1 120326Z 14006KT 24/08 A3008 RMK A01 T02360075  RH  035%=      5-min Rain = 0
KCO1 120327Z 14006KT 24/07 A3008 RMK A01 T02360074  RH  035%=      5-min Rain = 0
KCO1 120328Z 14006KT 24/07 A3008 RMK A01 T02350074  RH  036%=      5-min Rain = 0
KCO1 120329Z 14006KT 24/07 A3008 RMK A01 T02350074  RH  036%=      5-min Rain = 0
KCO1 120330Z 14006KT 23/07 A3008 RMK A01 T02340074  RH  036%=      5-min Rain = 0
KCO1 120331Z 13007KT 23/07 A3008 RMK A01 T02330073  RH  036%=      5-min Rain = 0
KCO1 120332Z 14006KT 23/07 A3008 RMK A01 T02330073  RH  036%=      5-min Rain = 0
KCO1 120333Z 14007KT 23/07 A3008 RMK A01 T02330073  RH  036%=      5-min Rain = 0
KCO1 120334Z 14007KT 23/07 A3008 RMK A01 T02320073  RH  036%=      5-min Rain = 0
KCO1 120335Z 14006KT 23/07 A3008 RMK A01 T02320073  RH  036%=      5-min Rain = 0
KCO1 120336Z 14006KT 23/07 A3009 RMK A01 T02330073  RH  036%=      5-min Rain = 0
KCO1 120337Z 14006KT 23/07 A3008 RMK A01 T02330073  RH  036%=      5-min Rain = 0
KCO1 120338Z 14006KT 23/07 A3008 RMK A01 T02330073  RH  036%=      5-min Rain = 0
KCO1 120339Z 14006KT 23/07 A3008 RMK A01 T02330073  RH  036%=      5-min Rain = 0
KCO1 120340Z 14006KT 23/07 A3008 RMK A01 T02330073  RH  036%=      5-min Rain = 0
KCO1 120341Z 14006KT 23/07 A3008 RMK A01 T02340073  RH  036%=      5-min Rain = 0
KCO1 120342Z 14006KT 23/07 A3008 RMK A01 T02330073  RH  036%=      5-min Rain = 0
KCO1 120343Z 14006KT 23/07 A3008 RMK A01 T02330073  RH  036%=      5-min Rain = 0
KCO1 120344Z 14006KT 23/07 A3009 RMK A01 T02330073  RH  036%=      5-min Rain = 0
KCO1 120345Z 14006KT 23/07 A3009 RMK A01 T02340073  RH  036%=      5-min Rain = 0
KCO1 120346Z 14006KT 23/07 A3009 RMK A01 T02340073  RH  036%=      5-min Rain = 0
KCO1 120347Z 14006KT 23/07 A3009 RMK A01 T02340073  RH  036%=      5-min Rain = 0
KCO1 120348Z 14006KT 23/07 A3009 RMK A01 T02340073  RH  036%=      5-min Rain = 0
KCO1 120349Z 14005KT 23/07 A3009 RMK A01 T02340073  RH  036%=      5-min Rain = 0
KCO1 120350Z 15005KT 23/07 A3009 RMK A01 T02340074  RH  036%=      5-min Rain = 0
KCO1 120351Z 15006KT 23/07 A3009 RMK A01 T02340074  RH  036%=      5-min Rain = 0
KCO1 120352Z 15005KT 23/07 A3009 RMK A01 T02330074  RH  036%=      5-min Rain = 0
KCO1 120353Z 15006KT 23/07 A3009 RMK A01 T02330073  RH  036%=      5-min Rain = 0
KCO1 120354Z 14006KT 23/07 A3009 RMK A01 T02320073  RH  036%=      5-min Rain = 0
KCO1 120355Z 14006KT 23/07 A3009 RMK A01 T02320074  RH  036%=      5-min Rain = 0
KCO1 120356Z 15006KT 23/07 A3009 RMK A01 T02310074  RH  036%=      5-min Rain = 0
KCO1 120357Z 15006KT 23/07 A3009 RMK A01 T02310074  RH  036%=      5-min Rain = 0
KCO1 120358Z 14006KT 23/07 A3009 RMK A01 T02300074  RH  037%=      5-min Rain = 0
KCO1 120359Z 15006KT 23/07 A3009 RMK A01 T02300074  RH  037%=      5-min Rain = 0
KCO1 120400Z 15006KT 23/07 A3009 RMK A01 T02290074  RH  037%=      5-min Rain = 0
KCO1 120401Z 15006KT 23/07 A3009 RMK A01 T02290074  RH  037%=      5-min Rain = 0
KCO1 120402Z 15006KT 23/07 A3009 RMK A01 T02280074  RH  037%=      5-min Rain = 0
KCO1 120403Z 15005KT 23/07 A3009 RMK A01 T02270074  RH  037%=      5-min Rain = 0
KCO1 120404Z 15006KT 23/07 A3009 RMK A01 T02270074  RH  037%=      5-min Rain = 0
KCO1 120405Z 15006KT 23/07 A3009 RMK A01 T02260074  RH  038%=      5-min Rain = 0
KCO1 120406Z 15006KT 23/07 A3009 RMK A01 T02260074  RH  038%=      5-min Rain = 0
KCO1 120407Z 15006KT 23/07 A3009 RMK A01 T02260074  RH  038%=      5-min Rain = 0
KCO1 120408Z 15006KT 23/08 A3009 RMK A01 T02250075  RH  038%=      5-min Rain = 0
KCO1 120409Z 15006KT 22/08 A3009 RMK A01 T02240075  RH  038%=      5-min Rain = 0
KCO1 120410Z 15006KT 22/08 A3009 RMK A01 T02230075  RH  038%=      5-min Rain = 0
KCO1 120411Z 15006KT 22/08 A3009 RMK A01 T02220075  RH  039%=      5-min Rain = 0
KCO1 120412Z 15006KT 22/08 A3009 RMK A01 T02220075  RH  039%=      5-min Rain = 0
KCO1 120413Z 15006KT 22/08 A3009 RMK A01 T02220076  RH  039%=      5-min Rain = 0
KCO1 120414Z 15006KT 22/08 A3009 RMK A01 T02210075  RH  039%=      5-min Rain = 0
KCO1 120415Z 15006KT 22/08 A3009 RMK A01 T02210076  RH  039%=      5-min Rain = 0
KCO1 120416Z 15006KT 22/08 A3009 RMK A01 T02200075  RH  039%=      5-min Rain = 0
KCO1 120417Z 16006KT 22/08 A3009 RMK A01 T02200076  RH  039%=      5-min Rain = 0
KCO1 120418Z 16006KT 22/08 A3009 RMK A01 T02200075  RH  039%=      5-min Rain = 0
KCO1 120419Z 16006KT 22/08 A3009 RMK A01 T02200075  RH  039%=      5-min Rain = 0
KCO1 120420Z 16006KT 22/08 A3009 RMK A01 T02190075  RH  039%=      5-min Rain = 0
KCO1 120421Z 16006KT 22/08 A3009 RMK A01 T02190075  RH  039%=      5-min Rain = 0
KCO1 120422Z 16006KT 22/07 A3009 RMK A01 T02190074  RH  039%=      5-min Rain = 0
KCO1 120423Z 16006KT 22/07 A3009 RMK A01 T02190074  RH  039%=      5-min Rain = 0
KCO1 120424Z 16006KT 22/07 A3009 RMK A01 T02190074  RH  039%=      5-min Rain = 0
KCO1 120425Z 16006KT 22/07 A3009 RMK A01 T02180074  RH  039%=      5-min Rain = 0
KCO1 120426Z 16006KT 22/08 A3009 RMK A01 T02190075  RH  039%=      5-min Rain = 0
KCO1 120427Z 16006KT 22/07 A3009 RMK A01 T02190074  RH  039%=      5-min Rain = 0
KCO1 120428Z 16006KT 22/07 A3009 RMK A01 T02190074  RH  039%=      5-min Rain = 0
KCO1 120429Z 16006KT 22/07 A3009 RMK A01 T02190074  RH  039%=      5-min Rain = 0
KCO1 120430Z 16006KT 22/07 A3009 RMK A01 T02190074  RH  039%=      5-min Rain = 0
KCO1 120431Z 16006KT 22/07 A3009 RMK A01 T02190074  RH  039%=      5-min Rain = 0
KCO1 120432Z 16006KT 22/07 A3009 RMK A01 T02180074  RH  039%=      5-min Rain = 0
KCO1 120433Z 16006KT 22/07 A3009 RMK A01 T02190074  RH  039%=      5-min Rain = 0
KCO1 120434Z 16006KT 22/07 A3009 RMK A01 T02180074  RH  039%=      5-min Rain = 0
KCO1 120435Z 16006KT 22/07 A3009 RMK A01 T02180074  RH  039%=      5-min Rain = 0
KCO1 120436Z 16006KT 22/07 A3009 RMK A01 T02180074  RH  039%=      5-min Rain = 0
KCO1 120437Z 16006KT 22/07 A3009 RMK A01 T02180074  RH  040%=      5-min Rain = 0
KCO1 120438Z 16006KT 22/07 A3009 RMK A01 T02170074  RH  040%=      5-min Rain = 0
KCO1 120439Z 16006KT 22/08 A3009 RMK A01 T02170075  RH  040%=      5-min Rain = 0
KCO1 120440Z 16006KT 22/08 A3009 RMK A01 T02170076  RH  040%=      5-min Rain = 0
KCO1 120441Z 17006KT 22/08 A3009 RMK A01 T02160076  RH  040%=      5-min Rain = 0
KCO1 120442Z 17006KT 22/08 A3009 RMK A01 T02150077  RH  041%=      5-min Rain = 0
KCO1 120443Z 17006KT 22/08 A3009 RMK A01 T02150077  RH  041%=      5-min Rain = 0
KCO1 120444Z 17006KT 22/08 A3009 RMK A01 T02150078  RH  041%=      5-min Rain = 0
KCO1 120445Z 17006KT 21/08 A3009 RMK A01 T02140078  RH  041%=      5-min Rain = 0
KCO1 120446Z 17006KT 21/08 A3009 RMK A01 T02140079  RH  042%=      5-min Rain = 0
KCO1 120447Z 17006KT 21/08 A3009 RMK A01 T02140079  RH  042%=      5-min Rain = 0
KCO1 120448Z 17006KT 21/08 A3009 RMK A01 T02140080  RH  042%=      5-min Rain = 0
KCO1 120449Z 17006KT 21/08 A3009 RMK A01 T02130080  RH  042%=      5-min Rain = 0
KCO1 120450Z 17006KT 21/08 A3009 RMK A01 T02120080  RH  042%=      5-min Rain = 0
KCO1 120451Z 17006KT 21/08 A3009 RMK A01 T02110080  RH  043%=      5-min Rain = 0
KCO1 120452Z 17006KT 21/08 A3009 RMK A01 T02110080  RH  043%=      5-min Rain = 0
KCO1 120453Z 17006KT 21/08 A3009 RMK A01 T02110081  RH  043%=      5-min Rain = 0
KCO1 120454Z 17006KT 21/08 A3009 RMK A01 T02110080  RH  043%=      5-min Rain = 0
KCO1 120455Z 17006KT 21/08 A3009 RMK A01 T02110081  RH  043%=      5-min Rain = 0
KCO1 120456Z 17006KT 21/08 A3009 RMK A01 T02110081  RH  043%=      5-min Rain = 0
KCO1 120457Z 17006KT 21/08 A3009 RMK A01 T02110081  RH  043%=      5-min Rain = 0
KCO1 120458Z 17006KT 21/08 A3009 RMK A01 T02100081  RH  043%=      5-min Rain = 0
KCO1 120459Z 17006KT 21/08 A3009 RMK A01 T02100081  RH  043%=      5-min Rain = 0

Page generated in 0.0762 seconds.